IK5NLA Weather Reports


time (UTC)temp
C
wind
direction
speed
KPH
gust
KPH
rain 1hr
cm
rain 24hr
cm
rain mn
cm
humidity
%
barometer
mb
20260506234428 11 188 8.0 17.7 0.00 0.00 0.00 92 1012.2
20260506234321 11 185 4.8 9.7 0.00 0.00 0.00 92 1012.2
20260506234213 11 188 4.8 8.0 0.00 0.00 0.00 92 1012.1
20260506234127 11 188 4.8 12.9 0.00 0.00 0.00 92 1012.1
20260506234020 11 190 3.2 12.9 0.00 0.00 0.00 92 1012.1
20260506233916 11 190 3.2 14.5 0.00 0.00 0.00 92 1012.1
20260506233829 11 190 4.8 14.5 0.00 0.00 0.00 92 1012.0
20260506233721 11 190 4.8 14.5 0.00 0.00 0.00 92 1012.0
20260506233613 11 190 4.8 14.5 0.00 0.00 0.00 92 1012.1
20260506233524 11 190 4.8 14.5 0.00 0.00 0.00 92 1012.1
20260506233420 11 205 3.2 14.5 0.00 0.00 0.00 92 1012.1
20260506233353 11 205 4.8 14.5 0.00 0.00 0.00 92 1012.1
20260506233224 11 211 6.4 14.5 0.00 0.00 0.00 93 1012.1
20260506233116 11 211 9.7 14.5 0.00 0.00 0.00 93 1012.1
20260506233050 11 212 8.0 14.5 0.00 0.00 0.00 93 1012.1
20260506232921 11 186 8.0 14.5 0.00 0.00 0.00 92 1012.1
20260506232836 11 192 6.4 14.5 0.00 0.00 0.00 92 1012.1
20260506232727 11 192 6.4 14.5 0.00 0.00 0.00 92 1012.1
20260506232618 10 191 6.4 14.5 0.00 0.00 0.00 93 1012.1
20260506232531 10 244 6.4 14.5 0.00 0.00 0.00 93 1012.1
20260506232422 10 263 4.8 14.5 0.00 0.00 0.00 93 1012.1
20260506232314 10 250 4.8 14.5 0.00 0.00 0.00 93 1012.1
20260506232246 10 250 6.4 14.5 0.00 0.00 0.00 93 1012.1
20260506232122 10 250 6.4 14.5 0.00 0.00 0.00 92 1012.2
20260506232015 10 211 4.8 17.7 0.00 0.00 0.00 92 1012.1
20260506231927 10 210 6.4 17.7 0.00 0.00 0.00 92 1012.1
20260506231820 10 276 6.4 17.7 0.00 0.00 0.00 92 1012.2
20260506231717 10 279 6.4 17.7 0.00 0.00 0.00 92 1012.1
20260506231630 10 242 4.8 17.7 0.00 0.00 0.00 92 1012.1
20260506231524 10 244 6.4 17.7 0.00 0.00 0.00 92 1012.1
20260506231416 10 234 8.0 17.7 0.00 0.00 0.00 92 1012.2
20260506231328 10 236 9.7 17.7 0.00 0.00 0.00 92 1012.2
20260506231224 10 261 11.3 17.7 0.00 0.00 0.00 92 1012.2
20260506231116 10 225 9.7 17.7 0.00 0.00 0.00 93 1012.2
20260506231028 10 205 8.0 17.7 0.00 0.00 0.00 93 1012.2
20260506230920 10 211 4.8 17.7 0.00 0.00 0.00 93 1012.2
20260506230852 10 216 6.4 17.7 0.00 0.00 0.00 92 1012.2
20260506230744 10 213 6.4 17.7 0.00 0.00 0.00 92 1012.3
20260506230639 10 236 6.4 17.7 0.00 0.00 0.00 92 1012.3
20260506230531 10 215 6.4 17.7 0.00 0.00 0.00 92 1012.3
20260506230423 10 244 9.7 17.7 0.00 0.00 0.00 92 1012.3
20260506230316 10 249 12.9 17.7 0.00 0.00 0.00 92 1012.3
20260506230228 11 236 12.9 17.7 0.00 0.00 0.00 92 1012.3
20260506230125 11 227 11.3 16.1 0.00 0.00 0.00 92 1012.3
20260506230016 11 221 11.3 16.1 0.00 0.00 0.00 92 1012.3
20260506225928 11 207 12.9 16.1 0.00 0.00 0.00 92 1012.3
20260506225820 11 194 11.3 17.7 0.00 0.00 0.00 92 1012.2
20260506225752 11 212 9.7 17.7 0.00 0.00 0.00 92 1012.2
20260506225623 11 228 9.7 17.7 0.00 0.00 0.00 92 1012.2
20260506225520 11 221 11.3 17.7 0.00 0.00 0.00 92 1012.2
20260506225412 11 194 12.9 17.7 0.00 0.00 0.00 92 1012.1
20260506225346 11 219 11.3 17.7 0.00 0.00 0.00 92 1012.1
20260506225217 11 203 9.7 14.5 0.00 0.00 0.00 92 1012.1
20260506225129 11 197 8.0 14.5 0.00 0.00 0.00 92 1012.2
20260506225026 11 210 9.7 14.5 0.00 0.00 0.00 92 1012.1
20260506224919 11 180 8.0 12.9 0.00 0.00 0.00 92 1012.1
20260506224851 11 178 6.4 12.9 0.00 0.00 0.00 92 1012.1
20260506224722 11 182 4.8 11.3 0.00 0.00 0.00 92 1012.0
20260506224615 11 186 3.2 8.0 0.00 0.00 0.00 92 1012.1
20260506224532 11 186 3.2 8.0 0.00 0.00 0.00 92 1012.1
20260506224424 11 186 3.2 9.7 0.00 0.00 0.00 93 1012.0
20260506224337 11 186 4.8 12.9 0.00 0.00 0.00 92 1012.0
20260506224228 11 185 4.8 12.9 0.00 0.00 0.00 92 1012.0
20260506224119 11 188 4.8 12.9 0.00 0.00 0.00 92 1012.0
20260506224015 11 201 3.2 14.5 0.00 0.00 0.00 92 1012.1
20260506223926 11 202 3.2 14.5 0.00 0.00 0.00 93 1012.1
20260506223818 11 202 4.8 14.5 0.00 0.00 0.00 93 1012.1
20260506223730 11 202 4.8 14.5 0.00 0.00 0.00 93 1012.1
20260506223642 11 209 6.4 14.5 0.00 0.00 0.00 93 1012.0
20260506223516 11 209 6.4 14.5 0.00 0.00 0.00 93 1012.1
20260506223412 11 210 8.0 14.5 0.00 0.00 0.00 93 1012.1
20260506223325 11 198 8.0 14.5 0.00 0.00 0.00 93 1012.1
20260506223215 11 186 6.4 14.5 0.00 0.00 0.00 93 1012.0
20260506223127 11 212 6.4 14.5 0.00 0.00 0.00 93 1012.0
20260506223041 11 215 6.4 14.5 0.00 0.00 0.00 93 1012.0
20260506222931 11 191 4.8 12.9 0.00 0.00 0.00 93 1012.0
20260506222827 11 269 4.8 12.9 0.00 0.00 0.00 93 1012.0
20260506222719 11 272 6.4 12.9 0.00 0.00 0.00 93 1012.0
20260506222632 11 265 6.4 12.9 0.00 0.00 0.00 93 1012.0
20260506222524 11 262 6.4 12.9 0.00 0.00 0.00 93 1012.0
20260506222414 11 261 6.4 12.9 0.00 0.00 0.00 93 1012.1
20260506222326 11 240 6.4 16.1 0.00 0.00 0.00 93 1012.1
20260506222243 11 243 8.0 16.1 0.00 0.00 0.00 93 1012.1
20260506222114 10 257 8.0 16.1 0.00 0.00 0.00 93 1012.1
20260506222027 10 223 8.0 16.1 0.00 0.00 0.00 93 1012.1
20260506221919 10 217 8.0 16.1 0.00 0.00 0.00 93 1012.2
20260506221812 10 198 6.4 16.1 0.00 0.00 0.00 93 1012.2
20260506221729 10 189 6.4 19.3 0.00 0.00 0.00 93 1012.2
20260506221642 10 189 8.0 19.3 0.00 0.00 0.00 93 1012.2
20260506221513 10 246 9.7 19.3 0.00 0.00 0.00 93 1012.2
20260506221424 10 255 9.7 19.3 0.00 0.00 0.00 93 1012.2
20260506221316 10 250 8.0 19.3 0.00 0.00 0.00 93 1012.2
20260506221226 10 245 8.0 19.3 0.00 0.00 0.00 93 1012.2
20260506221143 11 204 9.7 19.3 0.00 0.00 0.00 93 1012.2
20260506221016 11 225 9.7 19.3 0.00 0.00 0.00 93 1012.2
20260506220928 11 221 11.3 19.3 0.00 0.00 0.00 93 1012.2
20260506220821 11 188 11.3 19.3 0.00 0.00 0.00 93 1012.2
20260506220713 11 182 9.7 19.3 0.00 0.00 0.00 92 1012.2
20260506220646 11 227 9.7 16.1 0.00 0.00 0.00 92 1012.2
20260506220521 11 227 9.7 16.1 0.00 0.00 0.00 92 1012.2
20260506220437 11 215 9.7 19.3 0.00 0.00 0.00 93 1012.2
20260506220326 11 183 9.7 19.3 0.00 0.00 0.00 93 1012.2
20260506220218 11 211 9.7 19.3 0.00 0.00 0.00 93 1012.2
20260506220131 11 218 9.7 19.3 0.00 0.00 0.00 93 1012.2
20260506220024 11 218 6.4 19.3 0.00 0.00 0.00 93 1012.2
20260506215916 11 205 9.7 19.3 0.00 0.00 0.00 93 1012.2
20260506215812 11 207 12.9 19.3 0.00 0.00 0.00 93 1012.2
20260506215725 11 206 14.5 19.3 0.00 0.00 0.00 93 1012.2
20260506215617 11 244 14.5 19.3 0.00 0.00 0.00 93 1012.2
20260506215529 11 225 12.9 19.3 0.00 0.00 0.00 93 1012.2
20260506215420 11 228 8.0 16.1 0.00 0.00 0.00 93 1012.2
20260506215335 11 211 9.7 16.1 0.00 0.00 0.00 93 1012.1
20260506215226 11 201 9.7 16.1 0.00 0.00 0.00 93 1012.1
20260506215136 11 198 9.7 16.1 0.00 0.00 0.00 93 1012.1
20260506215028 11 209 9.7 16.1 0.00 0.00 0.00 93 1012.1
20260506214920 11 226 9.7 16.1 0.00 0.00 0.00 93 1012.1
20260506214813 11 171 9.7 16.1 0.00 0.00 0.00 92 1012.1
20260506214729 11 221 8.0 17.7 0.00 0.00 0.00 92 1012.1
20260506214641 11 208 9.7 17.7 0.00 0.00 0.00 92 1012.1
20260506214512 11 189 9.7 17.7 0.00 0.00 0.00 92 1012.1
20260506214425 11 204 11.3 19.3 0.00 0.00 0.00 92 1012.1
20260506214317 11 186 9.7 19.3 0.00 0.00 0.00 92 1012.0
20260506214213 11 198 9.7 19.3 0.00 0.00 0.00 92 1012.0
20260506214126 11 215 8.0 19.3 0.00 0.00 0.00 92 1012.0
20260506214040 11 182 6.4 19.3 0.00 0.00 0.00 92 1012.0
20260506213932 11 188 6.4 19.3 0.00 0.00 0.00 92 1012.0
20260506213824 11 199 8.0 19.3 0.00 0.00 0.00 92 1012.0
20260506213720 11 184 8.0 19.3 0.00 0.00 0.00 92 1012.0
20260506213632 11 178 9.7 19.3 0.00 0.00 0.00 92 1012.1
20260506213523 11 186 9.7 19.3 0.00 0.00 0.00 92 1012.0
20260506213415 11 182 6.4 14.5 0.00 0.00 0.00 92 1012.0
20260506213348 11 182 4.8 14.5 0.00 0.00 0.00 92 1012.0
20260506213220 11 182 6.4 14.5 0.00 0.00 0.00 92 1012.0
20260506213117 11 182 8.0 14.5 0.00 0.00 0.00 92 1012.0
20260506213030 11 182 8.0 14.5 0.00 0.00 0.00 92 1012.0
20260506212922 11 214 8.0 14.5 0.00 0.00 0.00 92 1012.0
20260506212814 11 190 6.4 14.5 0.00 0.00 0.00 92 1012.0
20260506212747 11 182 6.4 11.3 0.00 0.00 0.00 92 1012.0
20260506212619 11 182 6.4 11.3 0.00 0.00 0.00 92 1012.0
20260506212514 11 198 6.4 11.3 0.00 0.00 0.00 92 1012.0
20260506212447 11 207 6.4 11.3 0.00 0.00 0.00 92 1012.0
20260506212318 11 186 8.0 14.5 0.00 0.00 0.00 92 1012.0
20260506212230 11 171 8.0 14.5 0.00 0.00 0.00 92 1012.0
20260506212122 11 173 9.7 14.5 0.00 0.00 0.00 92 1012.0
20260506212020 11 166 8.0 14.5 0.00 0.00 0.00 92 1012.0
20260506211952 11 169 8.0 14.5 0.00 0.00 0.00 92 1012.0
20260506211824 11 169 6.4 14.5 0.00 0.00 0.00 92 1012.0
20260506211717 11 179 4.8 14.5 0.00 0.00 0.00 92 1012.0
20260506211630 11 179 6.4 14.5 0.00 0.00 0.00 92 1012.0
20260506211527 11 178 6.4 14.5 0.00 0.00 0.00 92 1012.0
20260506211419 11 178 8.0 14.5 0.00 0.00 0.00 92 1012.0
20260506211313 11 187 8.0 12.9 0.00 0.00 0.00 92 1012.0
20260506211244 11 186 8.0 12.9 0.00 0.00 0.00 92 1012.0
20260506211116 11 186 8.0 12.9 0.00 0.00 0.00 92 1012.0
20260506211027 11 192 4.8 12.9 0.00 0.00 0.00 92 1012.0
20260506210923 11 168 4.8 11.3 0.00 0.00 0.00 92 1012.0
20260506210814 11 169 6.4 11.3 0.00 0.00 0.00 92 1011.9
20260506210725 11 165 6.4 11.3 0.00 0.00 0.00 92 1011.9
20260506210616 11 188 4.8 11.3 0.00 0.00 0.00 92 1012.0
20260506210530 11 189 4.8 11.3 0.00 0.00 0.00 92 1012.0
20260506210421 12 205 3.2 11.3 0.00 0.00 0.00 92 1012.0
20260506210316 11 164 3.2 16.1 0.00 0.00 0.00 92 1011.9
20260506210228 11 155 3.2 16.1 0.00 0.00 0.00 92 1011.9
20260506210121 11 158 4.8 16.1 0.00 0.00 0.00 92 1012.0
20260506210012 11 157 4.8 16.1 0.00 0.00 0.00 92 1012.0
20260506205924 12 185 4.8 16.1 0.00 0.00 0.00 92 1012.0
20260506205840 12 189 3.2 16.1 0.00 0.00 0.00 92 1012.0
20260506205732 12 189 3.2 16.1 0.00 0.00 0.00 92 1011.9
20260506205624 12 189 3.2 16.1 0.00 0.00 0.00 92 1012.0
20260506205518 12 205 6.4 16.1 0.00 0.00 0.00 92 1012.0
20260506205429 12 203 8.0 16.1 0.00 0.00 0.00 92 1012.0
20260506205321 12 215 4.8 12.9 0.00 0.00 0.00 92 1011.9
20260506205215 12 171 1.6 11.3 0.00 0.00 0.00 92 1011.9
20260506205125 12 151 0.0 11.3 0.00 0.00 0.00 91 1011.9
20260506205017 12 152 1.6 12.9 0.00 0.00 0.00 91 1011.9
20260506204928 12 152 1.6 12.9 0.00 0.00 0.00 91 1011.9
20260506204818 12 105 3.2 19.3 0.00 0.00 0.00 91 1012.0
20260506204729 12 165 3.2 19.3 0.00 0.00 0.00 91 1012.0
20260506204626 12 165 3.2 19.3 0.00 0.00 0.00 91 1011.9
20260506204536 12 180 1.6 19.3 0.00 0.00 0.00 91 1011.9
20260506204447 12 180 1.6 19.3 0.00 0.00 0.00 91 1011.9
20260506204229 12 180 8.0 19.3 0.00 0.00 0.00 91 1011.9
20260506204122 12 170 8.0 19.3 0.00 0.00 0.00 91 1011.9
20260506204014 12 170 8.0 19.3 0.00 0.00 0.00 91 1011.8
20260506203930 12 184 8.0 19.3 0.00 0.00 0.00 91 1011.8
20260506203823 12 186 9.7 19.3 0.00 0.00 0.00 91 1011.8
20260506203715 12 186 6.4 17.7 0.00 0.00 0.00 90 1011.8
20260506203628 12 192 6.4 19.3 0.00 0.00 0.00 90 1011.8
20260506203521 12 257 8.0 19.3 0.00 0.00 0.00 90 1011.9
20260506203437 12 259 11.3 19.3 0.00 0.00 0.00 90 1011.9
20260506203328 12 190 11.3 19.3 0.00 0.00 0.00 90 1011.9
20260506203220 12 184 6.4 19.3 0.00 0.00 0.00 90 1011.9
20260506203113 12 220 6.4 19.3 0.00 0.00 0.00 90 1011.8
20260506203046 12 220 8.0 19.3 0.00 0.00 0.00 90 1011.8
20260506202936 12 226 11.3 19.3 0.00 0.00 0.00 90 1011.8
20260506202831 12 215 11.3 19.3 0.00 0.00 0.00 89 1011.8
20260506202721 12 204 12.9 19.3 0.00 0.00 0.00 89 1011.8
20260506202613 12 187 9.7 17.7 0.00 0.00 0.00 89 1011.7
20260506202527 12 188 9.7 19.3 0.00 0.00 0.00 89 1011.7
20260506202419 12 190 11.3 19.3 0.00 0.00 0.00 89 1011.7
20260506202315 12 224 12.9 19.3 0.00 0.00 0.00 89 1011.7
20260506202228 12 182 11.3 20.9 0.00 0.00 0.00 89 1011.7
20260506202121 12 186 8.0 16.1 0.00 0.00 0.00 89 1011.7
20260506202013 12 186 8.0 16.1 0.00 0.00 0.00 89 1011.7
20260506201926 12 198 8.0 16.1 0.00 0.00 0.00 89 1011.7
20260506201823 12 224 9.7 16.1 0.00 0.00 0.00 89 1011.7
20260506201715 12 202 8.0 17.7 0.00 0.00 0.00 89 1011.7
20260506201628 12 213 6.4 17.7 0.00 0.00 0.00 89 1011.7
20260506201521 12 190 6.4 17.7 0.00 0.00 0.00 89 1011.7
20260506201413 12 190 8.0 17.7 0.00 0.00 0.00 88 1011.6
20260506201330 12 225 8.0 17.7 0.00 0.00 0.00 89 1011.6
20260506201219 12 206 8.0 17.7 0.00 0.00 0.00 89 1011.7
20260506201152 12 244 9.7 17.7 0.00 0.00 0.00 88 1011.6
20260506201023 12 182 9.7 17.7 0.00 0.00 0.00 88 1011.6
20260506200934 12 187 11.3 17.7 0.00 0.00 0.00 88 1011.6
20260506200826 12 209 12.9 17.7 0.00 0.00 0.00 88 1011.6
20260506200722 12 207 11.3 16.1 0.00 0.00 0.00 88 1011.6
20260506200614 12 201 11.3 17.7 0.00 0.00 0.00 88 1011.5
20260506200528 12 206 11.3 17.7 0.00 0.00 0.00 88 1011.5
20260506200440 12 229 11.3 17.7 0.00 0.00 0.00 88 1011.5
20260506200331 12 206 11.3 17.7 0.00 0.00 0.00 88 1011.5
20260506200223 12 228 11.3 17.7 0.00 0.00 0.00 88 1011.5
20260506200120 12 202 9.7 22.5 0.00 0.00 0.00 88 1011.5
20260506200030 12 223 11.3 22.5 0.00 0.00 0.00 88 1011.5
20260506195922 12 221 11.3 22.5 0.00 0.00 0.00 88 1011.4
20260506195834 12 182 9.7 22.5 0.00 0.00 0.00 88 1011.4
20260506195725 12 209 11.3 22.5 0.00 0.00 0.00 88 1011.4
20260506195623 12 209 12.9 22.5 0.00 0.00 0.00 88 1011.4
20260506195515 12 213 14.5 22.5 0.00 0.00 0.00 88 1011.4
20260506195448 12 208 12.9 22.5 0.00 0.00 0.00 88 1011.4
20260506195319 12 209 12.9 22.5 0.00 0.00 0.00 88 1011.4
20260506195230 12 186 12.9 22.5 0.00 0.00 0.00 88 1011.4
20260506195120 12 212 14.5 22.5 0.00 0.00 0.00 88 1011.4
20260506195016 12 211 14.5 22.5 0.00 0.00 0.00 88 1011.3
20260506194947 12 228 12.9 22.5 0.00 0.00 0.00 88 1011.3
20260506194817 12 211 12.9 22.5 0.00 0.00 0.00 88 1011.3
20260506194726 12 212 14.5 22.5 0.00 0.00 0.00 88 1011.3
20260506194620 12 229 16.1 22.5 0.00 0.00 0.00 88 1011.4
20260506194512 12 184 14.5 22.5 0.00 0.00 0.00 88 1011.3
20260506194425 12 182 16.1 24.1 0.00 0.00 0.00 88 1011.3
20260506194322 12 178 14.5 20.9 0.00 0.00 0.00 88 1011.3
20260506194214 12 186 14.5 20.9 0.00 0.00 0.00 88 1011.2
20260506194125 12 230 12.9 19.3 0.00 0.00 0.00 88 1011.2
20260506194019 12 168 11.3 16.1 0.00 0.00 0.00 88 1011.3
20260506193931 12 181 11.3 16.1 0.00 0.00 0.00 88 1011.3
20260506193828 12 217 12.9 16.1 0.00 0.00 0.00 88 1011.2
20260506193721 12 194 11.3 20.9 0.00 0.00 0.00 88 1011.2
20260506193613 12 167 6.4 17.7 0.00 0.00 0.00 88 1011.1
20260506193527 12 184 8.0 17.7 0.00 0.00 0.00 88 1011.1
20260506193419 12 208 8.0 17.7 0.00 0.00 0.00 88 1011.1
20260506193315 12 189 9.7 17.7 0.00 0.00 0.00 88 1011.0
20260506193226 12 202 9.7 17.7 0.00 0.00 0.00 88 1011.0
20260506193119 12 210 9.7 17.7 0.00 0.00 0.00 88 1011.0
20260506193052 12 183 11.3 17.7 0.00 0.00 0.00 88 1011.0
20260506192923 12 188 9.7 16.1 0.00 0.00 0.00 88 1011.0
20260506192819 12 221 9.7 16.1 0.00 0.00 0.00 87 1011.0
20260506192712 12 228 4.8 16.1 0.00 0.00 0.00 87 1010.9
20260506192625 12 172 4.8 16.1 0.00 0.00 0.00 87 1010.9
20260506192519 12 175 4.8 16.1 0.00 0.00 0.00 87 1010.9
20260506192431 12 175 4.8 16.1 0.00 0.00 0.00 87 1010.9
20260506192323 12 173 4.8 16.1 0.00 0.00 0.00 87 1010.8
20260506192218 12 173 6.4 16.1 0.00 0.00 0.00 87 1010.9
20260506192129 12 173 8.0 16.1 0.00 0.00 0.00 87 1010.8
20260506192022 12 173 8.0 19.3 0.00 0.00 0.00 87 1010.8
20260506191934 12 169 9.7 19.3 0.00 0.00 0.00 87 1010.8
20260506191824 12 190 9.7 19.3 0.00 0.00 0.00 87 1010.8
20260506191719 12 257 8.0 19.3 0.00 0.00 0.00 87 1010.7
20260506191612 12 165 6.4 19.3 0.00 0.00 0.00 87 1010.7
20260506191546 12 240 4.8 19.3 0.00 0.00 0.00 87 1010.7
20260506191417 12 200 6.4 19.3 0.00 0.00 0.00 87 1010.7
20260506191330 12 196 8.0 19.3 0.00 0.00 0.00 86 1010.7
20260506191219 12 227 11.3 19.3 0.00 0.00 0.00 86 1010.6
20260506191114 12 202 11.3 19.3 0.00 0.00 0.00 86 1010.6
20260506191026 12 238 11.3 20.9 0.00 0.00 0.00 86 1010.6
20260506190916 12 250 9.7 20.9 0.00 0.00 0.00 86 1010.7
20260506190828 12 250 11.3 20.9 0.00 0.00 0.00 86 1010.7
20260506190741 12 188 11.3 20.9 0.00 0.00 0.00 86 1010.6
20260506190613 12 189 9.7 20.9 0.00 0.00 0.00 86 1010.7
20260506190529 12 197 12.9 20.9 0.00 0.00 0.00 86 1010.7
20260506190421 12 186 12.9 20.9 0.00 0.00 0.00 85 1010.7
20260506190331 12 186 12.9 22.5 0.00 0.00 0.00 85 1010.6
20260506190223 12 184 11.3 22.5 0.00 0.00 0.00 85 1010.5
20260506190115 12 195 9.7 22.5 0.00 0.00 0.00 85 1010.6
20260506190031 12 169 9.7 22.5 0.00 0.00 0.00 85 1010.6
20260506185921 12 127 9.7 22.5 0.00 0.00 0.00 85 1010.5
20260506185813 12 196 11.3 22.5 0.00 0.00 0.00 85 1010.5
20260506185726 12 181 11.3 22.5 0.00 0.00 0.00 85 1010.5
20260506185617 12 193 11.3 22.5 0.00 0.00 0.00 85 1010.4
20260506185421 12 182 6.4 22.5 0.00 0.00 0.00 84 1010.4
20260506185332 12 185 6.4 22.5 0.00 0.00 0.00 84 1010.5
20260506185224 12 182 8.0 22.5 0.00 0.00 0.00 84 1010.3
20260506185115 12 237 6.4 22.5 0.00 0.00 0.00 84 1010.4
20260506185028 12 128 4.8 20.9 0.00 0.00 0.00 84 1010.4
20260506184919 12 176 4.8 20.9 0.00 0.00 0.00 84 1010.3
20260506184836 12 186 6.4 20.9 0.00 0.00 0.00 84 1010.3
20260506184727 12 244 8.0 20.9 0.00 0.00 0.00 83 1010.3
20260506184618 12 157 6.4 20.9 0.00 0.00 0.00 83 1010.3
20260506184531 12 180 6.4 20.9 0.00 0.00 0.00 83 1010.3
20260506184423 12 180 8.0 20.9 0.00 0.00 0.00 84 1010.3
20260506184313 12 355 9.7 20.9 0.00 0.00 0.00 84 1010.3
20260506184230 12 153 9.7 20.9 0.00 0.00 0.00 84 1010.3
20260506184122 12 180 6.4 14.5 0.00 0.00 0.00 84 1010.3
20260506184013 12 185 6.4 14.5 0.00 0.00 0.00 83 1010.2
20260506183923 12 236 6.4 14.5 0.00 0.00 0.00 83 1010.2
20260506183835 12 173 8.0 14.5 0.00 0.00 0.00 83 1010.2
20260506183725 12 171 6.4 14.5 0.00 0.00 0.00 83 1010.2
20260506183621 12 180 6.4 12.9 0.00 0.00 0.00 83 1010.2
20260506183513 12 184 6.4 12.9 0.00 0.00 0.00 83 1010.2
20260506183446 12 182 3.2 12.9 0.00 0.00 0.00 82 1010.2
20260506183315 12 225 3.2 19.3 0.00 0.00 0.00 82 1010.2
20260506183228 12 229 1.6 19.3 0.00 0.00 0.00 82 1010.2
20260506183120 12 252 1.6 19.3 0.00 0.00 0.00 82 1010.2
20260506183015 12 169 4.8 19.3 0.00 0.00 0.00 82 1010.1
20260506182927 12 169 6.4 19.3 0.00 0.00 0.00 82 1010.1
20260506182819 13 171 6.4 19.3 0.00 0.00 0.00 82 1010.1
20260506182729 13 178 6.4 27.4 0.00 0.00 0.00 82 1010.1
20260506182622 13 178 8.0 27.4 0.00 0.00 0.00 82 1010.1
20260506182512 13 179 11.3 27.4 0.00 0.00 0.00 82 1010.1
20260506182428 13 165 11.3 27.4 0.00 0.00 0.00 82 1010.1
20260506182321 13 186 6.4 27.4 0.00 0.00 0.00 81 1010.2
20260506182213 13 179 6.4 27.4 0.00 0.00 0.00 81 1010.1
20260506182124 13 178 6.4 27.4 0.00 0.00 0.00 81 1010.1
20260506182036 13 163 8.0 27.4 0.00 0.00 0.00 81 1010.2
20260506181928 13 200 11.3 27.4 0.00 0.00 0.00 80 1010.2
20260506181824 13 246 14.5 27.4 0.00 0.00 0.00 80 1010.1
20260506181715 13 274 9.7 24.1 0.00 0.00 0.00 81 1010.1
20260506181627 13 180 8.0 24.1 0.00 0.00 0.00 81 1010.1
20260506181520 13 229 9.7 24.1 0.00 0.00 0.00 81 1010.2
20260506181430 13 242 9.7 24.1 0.00 0.00 0.00 81 1010.1
20260506181317 13 225 11.3 24.1 0.00 0.00 0.00 81 1010.0
20260506181213 13 184 9.7 24.1 0.00 0.00 0.00 81 1010.1
20260506181146 13 174 11.3 24.1 0.00 0.00 0.00 81 1010.1
20260506181015 13 180 11.3 24.1 0.00 0.00 0.00 81 1010.1
20260506180928 13 180 9.7 25.7 0.00 0.00 0.00 81 1010.1
20260506180819 13 182 9.7 25.7 0.00 0.00 0.00 81 1010.1
20260506180752 13 186 11.3 25.7 0.00 0.00 0.00 81 1010.1
20260506180621 13 173 11.3 25.7 0.00 0.00 0.00 81 1010.0
20260506180519 13 229 9.7 24.1 0.00 0.00 0.00 81 1010.0
20260506180430 13 188 9.7 24.1 0.00 0.00 0.00 81 1010.0
20260506180342 13 201 11.3 24.1 0.00 0.00 0.00 81 1010.0
20260506180213 13 146 9.7 24.1 0.00 0.00 0.00 81 1010.0
20260506180126 13 187 9.7 22.5 0.00 0.00 0.00 81 1010.0
20260506180023 13 202 11.3 19.3 0.00 0.00 0.00 81 1009.9
20260506175915 13 194 11.3 19.3 0.00 0.00 0.00 81 1009.9
20260506175827 13 177 9.7 17.7 0.00 0.00 0.00 81 1009.9
20260506175719 13 213 9.7 16.1 0.00 0.00 0.00 81 1010.0
20260506175632 13 241 9.7 16.1 0.00 0.00 0.00 81 1010.0
20260506175547 13 183 11.3 16.1 0.00 0.00 0.00 81 1009.9
20260506175416 13 215 9.7 16.1 0.00 0.00 0.00 81 1009.9
20260506175328 13 189 8.0 17.7 0.00 0.00 0.00 81 1009.9
20260506175240 13 165 6.4 17.7 0.00 0.00 0.00 81 1009.8
20260506175150 13 186 6.4 17.7 0.00 0.00 0.00 80 1009.9
20260506175020 13 184 6.4 19.3 0.00 0.00 0.00 80 1009.9
20260506174930 13 172 6.4 19.3 0.00 0.00 0.00 80 1010.0
20260506174826 13 165 8.0 19.3 0.00 0.00 0.00 80 1009.8
20260506174719 13 156 9.7 19.3 0.00 0.00 0.00 80 1009.9
20260506174632 13 183 9.7 20.9 0.00 0.00 0.00 80 1009.8
20260506174522 13 249 11.3 20.9 0.00 0.00 0.00 80 1009.9
20260506174412 13 180 9.7 20.9 0.00 0.00 0.00 80 1009.8
20260506174325 13 154 8.0 20.9 0.00 0.00 0.00 80 1009.8
20260506174220 13 178 8.0 29.0 0.00 0.00 0.00 79 1009.8
20260506174112 13 169 8.0 29.0 0.00 0.00 0.00 79 1009.8
20260506174026 13 124 8.0 29.0 0.00 0.00 0.00 79 1009.8
20260506173937 13 138 6.4 29.0 0.00 0.00 0.00 79 1009.8
20260506173828 13 165 8.0 35.4 0.00 0.00 0.00 79 1009.8
20260506173724 13 173 9.7 35.4 0.00 0.00 0.00 79 1009.7
20260506173629 13 169 9.7 35.4 0.00 0.00 0.00 79 1009.7
20260506173521 13 183 9.7 35.4 0.00 0.00 0.00 79 1009.7
20260506173453 13 165 14.5 35.4 0.00 0.00 0.00 79 1009.7
20260506173323 13 190 16.1 35.4 0.00 0.00 0.00 79 1009.7
20260506173231 13 157 12.9 35.4 0.00 0.00 0.00 79 1009.7
20260506173128 13 188 12.9 35.4 0.00 0.00 0.00 78 1009.8
20260506173042 13 198 16.1 35.4 0.00 0.00 0.00 77 1009.8
20260506172932 13 305 16.1 35.4 0.00 0.00 0.00 78 1009.7
20260506172824 13 242 16.1 35.4 0.00 0.00 0.00 79 1009.7
20260506172716 13 238 12.9 35.4 0.00 0.00 0.00 79 1009.7
20260506172612 13 216 11.3 35.4 0.00 0.00 0.00 79 1009.7
20260506172525 13 149 11.3 35.4 0.00 0.00 0.00 79 1009.7
20260506172415 13 145 12.9 35.4 0.00 0.00 0.00 80 1009.9
20260506172326 13 242 12.9 35.4 0.00 0.00 0.00 80 1009.9
20260506172216 13 265 12.9 35.4 0.00 0.00 0.00 80 1009.7
20260506172127 13 159 16.1 35.4 0.00 0.00 0.00 80 1009.7
20260506172023 13 213 16.1 35.4 0.00 0.00 0.00 79 1009.7
20260506171914 13 221 11.3 35.4 0.00 0.00 0.00 80 1009.8
20260506171846 13 185 9.7 29.0 0.00 0.00 0.00 80 1009.8
20260506171718 13 223 16.1 29.0 0.00 0.00 0.00 80 1009.8
20260506171628 13 267 22.5 29.0 0.00 0.00 0.00 80 1009.7
20260506171540 13 210 19.3 27.4 0.00 0.00 0.00 80 1009.7
20260506171413 13 279 16.1 25.7 0.00 0.00 0.00 81 1009.8
20260506171325 13 234 12.9 24.1 0.00 0.00 0.00 81 1009.8
20260506171216 13 179 12.9 30.6 0.00 0.00 0.00 81 1009.7
20260506171129 13 225 9.7 30.6 0.00 0.00 0.00 81 1009.7
20260506171043 13 183 9.7 30.6 0.00 0.00 0.00 81 1009.8
20260506170934 13 165 11.3 30.6 0.00 0.00 0.00 80 1009.7
20260506170825 13 235 12.9 30.6 0.00 0.00 0.00 80 1009.7
20260506170722 13 229 11.3 30.6 0.00 0.00 0.00 80 1009.8
20260506170613 13 186 9.7 32.2 0.00 0.00 0.00 80 1009.7
20260506170525 13 156 11.3 32.2 0.00 0.00 0.00 80 1009.7
20260506170418 13 185 14.5 32.2 0.00 0.00 0.00 80 1009.7
20260506170312 13 242 14.5 32.2 0.00 0.00 0.00 80 1009.7
20260506170224 13 203 14.5 32.2 0.00 0.00 0.00 80 1009.7
20260506170113 13 183 16.1 32.2 0.00 0.00 0.00 79 1009.7
20260506170047 13 225 17.7 32.2 0.00 0.00 0.00 79 1009.7
20260506165918 13 173 12.9 35.4 0.00 0.00 0.00 78 1009.7
20260506165828 13 217 12.9 35.4 0.00 0.00 0.00 78 1009.7
20260506165724 13 195 12.9 35.4 0.00 0.00 0.00 77 1009.7
20260506165616 13 181 11.3 35.4 0.00 0.00 0.00 78 1009.6
20260506165549 13 178 11.3 35.4 0.00 0.00 0.00 77 1009.6
20260506165420 13 188 16.1 35.4 0.00 0.00 0.00 77 1009.6
20260506165331 13 194 17.7 35.4 0.00 0.00 0.00 76 1009.7
20260506165243 13 188 17.7 35.4 0.00 0.00 0.00 76 1009.7
20260506165119 14 202 19.3 35.4 0.00 0.00 0.00 76 1009.7
20260506165031 14 158 19.3 35.4 0.00 0.00 0.00 76 1009.6
20260506164922 14 171 16.1 35.4 0.00 0.00 0.00 76 1009.6
20260506164815 14 165 16.1 35.4 0.00 0.00 0.00 76 1009.6
20260506164727 14 128 16.1 35.4 0.00 0.00 0.00 76 1009.6
20260506164623 14 201 16.1 35.4 0.00 0.00 0.00 75 1009.7
20260506164514 14 186 16.1 35.4 0.00 0.00 0.00 75 1009.6
20260506164427 14 188 14.5 35.4 0.00 0.00 0.00 74 1009.6
20260506164318 14 184 17.7 35.4 0.00 0.00 0.00 74 1009.6
20260506164231 14 183 17.7 33.8 0.00 0.00 0.00 74 1009.5
20260506164128 14 183 14.5 33.8 0.00 0.00 0.00 74 1009.6
20260506164022 14 229 14.5 33.8 0.00 0.00 0.00 75 1009.6
20260506163913 14 172 16.1 33.8 0.00 0.00 0.00 74 1009.5
20260506163825 14 157 16.1 32.2 0.00 0.00 0.00 75 1009.5
20260506163716 14 213 12.9 32.2 0.00 0.00 0.00 76 1009.6
20260506163613 14 199 14.5 35.4 0.00 0.00 0.00 76 1009.6
20260506163525 14 188 14.5 35.4 0.00 0.00 0.00 76 1009.6
20260506163416 14 186 14.5 35.4 0.00 0.00 0.00 77 1009.6
20260506163327 14 250 14.5 35.4 0.00 0.00 0.00 77 1009.6
20260506163240 14 196 17.7 38.6 0.00 0.00 0.00 76 1009.7
20260506163131 14 208 16.1 38.6 0.00 0.00 0.00 76 1009.7
20260506163026 14 229 17.7 38.6 0.00 0.00 0.00 77 1009.7
20260506162918 14 242 17.7 38.6 0.00 0.00 0.00 77 1009.6
20260506162831 14 215 17.7 38.6 0.00 0.00 0.00 77 1009.6
20260506162723 14 259 24.1 38.6 0.00 0.00 0.00 78 1009.6
20260506162616 14 232 17.7 38.6 0.00 0.00 0.00 78 1009.5
20260506162532 14 240 14.5 38.6 0.00 0.00 0.00 78 1009.5
20260506162424 14 177 16.1 38.6 0.00 0.00 0.00 77 1009.6
20260506162314 14 215 20.9 38.6 0.00 0.00 0.00 78 1009.5
20260506162226 14 244 24.1 38.6 0.00 0.00 0.00 77 1009.5
20260506162139 14 132 20.9 37.0 0.00 0.00 0.00 77 1009.5
20260506162029 14 167 16.1 30.6 0.00 0.00 0.00 78 1009.4
20260506161925 15 100 12.9 35.4 0.00 0.00 0.00 79 1009.5
20260506161817 15 248 12.9 35.4 0.00 0.00 0.00 78 1009.4
20260506161749 15 150 9.7 35.4 0.00 0.00 0.00 78 1009.4
20260506161620 15 87 8.0 35.4 0.00 0.00 0.00 77 1009.4
20260506161532 15 231 12.9 35.4 0.00 0.00 0.00 78 1009.5
20260506161424 15 304 19.3 35.4 0.00 0.00 0.00 78 1009.5
20260506161319 15 226 17.7 35.4 0.00 0.00 0.00 78 1009.5
20260506161229 15 205 16.1 35.4 0.00 0.00 0.00 77 1009.2
20260506161122 15 186 16.1 35.4 0.00 0.00 0.00 78 1009.4
20260506161035 15 200 14.5 35.4 0.00 0.00 0.00 78 1009.4
20260506160925 15 205 11.3 33.8 0.00 0.00 0.00 78 1009.4
20260506160817 15 171 11.3 33.8 0.00 0.00 0.00 78 1009.5
20260506160714 15 137 8.0 33.8 0.00 0.00 0.00 79 1009.6
20260506160625 15 131 9.7 33.8 0.00 0.00 0.00 79 1009.6
20260506160517 15 300 12.9 33.8 0.00 0.00 0.00 78 1009.6
20260506160449 15 134 14.5 35.4 0.00 0.00 0.00 78 1009.6
20260506160319 15 205 11.3 35.4 0.00 0.00 0.00 79 1009.6
20260506160214 15 176 6.4 35.4 0.00 0.00 0.00 79 1009.5
20260506160127 15 184 9.7 35.4 0.00 0.00 0.00 79 1009.5
20260506160017 15 161 12.9 35.4 0.00 0.00 0.00 78 1009.6
20260506155929 15 245 14.5 35.4 0.00 0.00 0.00 79 1009.6
20260506155822 15 126 14.5 35.4 0.00 0.00 0.00 79 1009.4
20260506155714 15 163 12.9 35.4 0.00 0.00 0.00 79 1009.5
20260506155649 15 157 17.7 35.4 0.00 0.00 0.00 80 1009.5
20260506155521 15 148 20.9 35.4 0.00 0.00 0.00 79 1009.4
20260506155432 15 146 17.7 37.0 0.00 0.00 0.00 79 1009.3
20260506155343 15 98 14.5 37.0 0.00 0.00 0.00 79 1009.2
20260506155232 15 19 12.9 37.0 0.00 0.00 0.00 80 1009.4
20260506155122 15 170 8.0 30.6 0.00 0.00 0.00 80 1009.3
20260506155019 15 149 14.5 30.6 0.00 0.00 0.00 81 1009.3
20260506154952 15 138 19.3 30.6 0.00 0.00 0.00 81 1009.2
20260506154823 15 182 17.7 30.6 0.00 0.00 0.00 81 1009.4
20260506154712 15 190 14.5 20.9 0.00 0.00 0.00 82 1009.2
20260506154644 15 148 11.3 20.9 0.00 0.00 0.00 82 1009.2
20260506154514 15 169 9.7 22.5 0.00 0.00 0.00 83 1009.2
20260506154426 15 167 9.7 22.5 0.00 0.00 0.00 84 1009.2
20260506154321 15 140 12.9 22.5 0.00 0.00 0.00 83 1009.2
20260506154214 15 171 11.3 22.5 0.00 0.00 0.00 83 1009.2
20260506154126 15 90 9.7 19.3 0.00 0.00 0.00 84 1009.2
20260506154020 15 236 9.7 24.1 0.00 0.00 0.00 85 1009.2
20260506153912 15 157 9.7 24.1 0.00 0.00 0.00 85 1009.2
20260506153829 15 181 8.0 33.8 0.00 0.00 0.00 85 1009.2
20260506153722 15 161 6.4 33.8 0.00 0.00 0.00 85 1009.2
20260506153614 15 170 6.4 32.2 0.00 0.00 0.00 85 1009.3
20260506153545 15 163 4.8 32.2 0.00 0.00 0.00 85 1009.3
20260506153415 15 189 4.8 32.2 0.00 0.00 0.00 85 1009.1
20260506153331 15 217 6.4 32.2 0.00 0.00 0.00 85 1009.1
20260506153222 15 215 11.3 32.2 0.00 0.00 0.00 85 1009.1
20260506153135 15 76 11.3 32.2 0.00 0.00 0.00 85 1009.1
20260506153027 15 173 14.5 32.2 0.00 0.00 0.00 85 1009.1
20260506152919 15 101 16.1 32.2 0.00 0.00 0.00 85 1009.0
20260506152816 15 193 20.9 32.2 0.00 0.00 0.00 86 1009.1
20260506152728 15 145 20.9 32.2 0.00 0.00 0.00 86 1009.1
20260506152620 15 180 17.7 32.2 0.00 0.00 0.00 86 1009.1
20260506152512 15 173 16.1 32.2 0.00 0.00 0.00 85 1009.0
20260506152423 15 179 19.3 32.2 0.00 0.00 0.00 85 1009.0
20260506152313 15 178 19.3 32.2 0.00 0.00 0.00 86 1008.8
20260506152230 15 180 16.1 29.0 0.00 0.00 0.00 85 1008.8
20260506152123 15 160 14.5 32.2 0.00 0.00 0.00 85 1008.9
20260506152014 15 181 16.1 32.2 0.00 0.00 0.00 85 1008.9
20260506151947 15 211 17.7 32.2 0.00 0.00 0.00 86 1008.9
20260506151817 15 179 19.3 32.2 0.00 0.00 0.00 86 1008.9
20260506151714 14 118 19.3 32.2 0.00 0.00 0.00 86 1009.0
20260506151626 14 167 19.3 32.2 0.00 0.00 0.00 87 1009.0
20260506151537 14 174 17.7 32.2 0.00 0.00 0.00 87 1009.0
20260506151428 14 165 17.7 32.2 0.00 0.00 0.00 87 1009.0
20260506151321 14 166 19.3 32.2 0.00 0.00 0.00 86 1009.1
20260506151214 14 150 22.5 38.6 0.00 0.00 0.00 86 1009.0
20260506151130 14 179 17.7 38.6 0.00 0.00 0.00 87 1009.0
20260506151024 14 185 14.5 38.6 0.00 0.00 0.00 86 1009.0
20260506150915 14 162 11.3 38.6 0.00 0.00 0.00 86 1009.0
20260506150828 14 166 8.0 38.6 0.00 0.00 0.00 86 1009.0
20260506150721 14 138 8.0 38.6 0.00 0.00 0.00 86 1009.0
20260506150618 14 98 6.4 38.6 0.00 0.00 0.00 85 1009.1
20260506150530 14 82 9.7 38.6 0.00 0.00 0.00 85 1009.1
20260506150423 14 181 16.1 38.6 0.00 0.00 0.00 84 1009.3
20260506150335 14 186 16.1 38.6 0.00 0.00 0.00 84 1009.1
20260506150226 15 165 14.5 38.6 0.00 0.00 0.00 85 1009.1
20260506150123 15 156 9.7 17.7 0.00 0.00 0.00 84 1009.2
20260506150014 15 152 8.0 16.1 0.00 0.00 0.00 84 1009.4
20260506145927 15 175 9.7 16.1 0.00 0.00 0.00 85 1009.4
20260506145839 15 134 9.7 16.1 0.00 0.00 0.00 85 1009.4
20260506145729 15 98 8.0 17.7 0.00 0.00 0.00 85 1009.3
20260506145622 15 5 6.4 17.7 0.00 0.00 0.00 86 1009.2
20260506145517 15 90 6.4 25.7 0.00 0.00 0.00 87 1009.2
20260506145216 15 114 3.2 25.7 0.00 0.00 0.00 87 1009.3
20260506145127 15 134 4.8 25.7 0.00 0.00 0.00 87 1009.3
20260506145041 15 129 6.4 25.7 0.00 0.00 0.00 87 1009.2
20260506144931 14 93 6.4 25.7 0.00 0.00 0.00 87 1009.0
20260506144823 14 137 8.0 35.4 0.00 0.00 0.00 87 1009.2
20260506144719 14 121 12.9 35.4 0.00 0.00 0.00 87 1009.1
20260506144612 14 102 17.7 35.4 0.00 0.00 0.00 88 1009.1
20260506144524 14 186 16.1 35.4 0.00 0.00 0.00 88 1009.1
20260506144416 14 173 14.5 35.4 0.00 0.00 0.00 88 1009.2
20260506144313 14 178 11.3 35.4 0.00 0.00 0.00 89 1009.3
20260506144225 14 161 9.7 35.4 0.00 0.00 0.00 89 1009.3
20260506144118 14 157 6.4 35.4 0.00 0.00 0.00 89 1009.3
20260506144031 14 187 12.9 35.4 0.00 0.00 0.00 89 1009.4
20260506143923 14 255 14.5 35.4 0.00 0.00 0.00 90 1009.4
20260506143820 14 160 11.3 40.2 0.00 0.00 0.00 90 1009.4
20260506143712 14 227 16.1 40.2 0.00 0.00 0.00 90 1009.4
20260506143624 14 170 17.7 40.2 0.00 0.00 0.00 91 1009.4
20260506143516 13 172 14.5 29.0 0.00 0.00 0.00 91 1009.4
20260506143425 13 157 12.9 29.0 0.00 0.00 0.00 91 1009.4
20260506143321 13 165 12.9 29.0 0.00 0.00 0.00 91 1009.3
20260506143214 13 167 12.9 29.0 0.00 0.00 0.00 91 1009.2
20260506143147 13 148 14.5 29.0 0.00 0.00 0.00 92 1009.2
20260506143019 13 159 14.5 29.0 0.00 0.00 0.00 92 1009.2
20260506142932 13 173 12.9 22.5 0.00 0.00 0.00 92 1009.2
20260506142824 13 176 11.3 25.7 0.00 0.00 0.00 92 1009.4
20260506142721 13 157 11.3 24.1 0.00 0.00 0.00 92 1009.4
20260506142613 13 125 8.0 24.1 0.00 0.00 0.00 92 1009.2
20260506142546 13 125 9.7 24.1 0.00 0.00 0.00 92 1009.2
20260506142416 13 124 11.3 24.1 0.00 0.00 0.00 92 1009.3
20260506142329 13 141 9.7 24.1 0.00 0.00 0.00 92 1009.3
20260506142246 13 142 8.0 24.1 0.00 0.00 0.00 92 1009.5
20260506142118 13 148 9.7 24.1 0.00 0.00 0.00 92 1009.5
20260506142030 13 169 11.3 24.1 0.00 0.00 0.00 92 1009.5
20260506141942 13 171 12.9 24.1 0.00 0.00 0.00 92 1009.5
20260506141813 13 175 9.7 17.7 0.00 0.00 0.00 92 1009.5
20260506141725 13 172 4.8 16.1 0.00 0.00 0.00 91 1009.5
20260506141621 13 150 3.2 16.1 0.00 0.00 0.00 91 1009.5
20260506141513 13 150 6.4 16.1 0.00 0.00 0.00 91 1009.5
20260506141445 13 142 8.0 19.3 0.00 0.00 0.00 91 1009.5
20260506141317 13 142 8.0 17.7 0.00 0.00 0.00 91 1009.5
20260506141229 13 159 6.4 29.0 0.00 0.00 0.00 91 1009.5
20260506141145 13 167 6.4 29.0 0.00 0.00 0.00 91 1009.5
20260506141018 13 170 4.8 29.0 0.00 0.00 0.00 91 1009.5
20260506140929 13 135 3.2 29.0 0.00 0.00 0.00 90 1009.4
20260506140822 13 149 6.4 29.0 0.00 0.00 0.00 90 1009.4
20260506140714 13 127 6.4 29.0 0.00 0.00 0.00 90 1009.5
20260506140646 13 124 9.7 29.0 0.00 0.00 0.00 90 1009.5
20260506140521 13 127 12.9 29.0 0.00 0.00 0.00 90 1009.5
20260506140414 13 144 16.1 29.0 0.00 0.00 0.00 90 1009.6
20260506140347 13 174 14.5 29.0 0.00 0.00 0.00 90 1009.6
20260506140218 13 159 12.9 24.1 0.00 0.00 0.00 90 1009.5
20260506140131 13 124 12.9 24.1 0.00 0.00 0.00 90 1009.4
20260506140029 13 173 11.3 27.4 0.00 0.00 0.00 90 1009.6
20260506135941 13 169 11.3 27.4 0.00 0.00 0.00 90 1009.6
20260506135812 13 130 12.9 27.4 0.00 0.00 0.00 90 1009.5
20260506135724 13 161 14.5 27.4 0.00 0.00 0.00 90 1009.5
20260506135615 13 171 14.5 27.4 0.00 0.00 0.00 90 1009.5
20260506135532 13 169 12.9 27.4 0.00 0.00 0.00 90 1009.5
20260506135444 13 126 11.3 27.4 0.00 0.00 0.00 90 1009.5
20260506135315 13 239 12.9 27.4 0.00 0.00 0.00 90 1009.5
20260506135248 13 172 12.9 27.4 0.00 0.00 0.00 90 1009.5
20260506135121 13 119 16.1 27.4 0.00 0.00 0.00 90 1009.5
20260506135012 13 153 16.1 27.4 0.00 0.00 0.00 90 1009.6
20260506134929 13 133 16.1 27.4 0.00 0.00 0.00 90 1009.6
20260506134822 13 180 17.7 25.7 0.00 0.00 0.00 90 1009.7
20260506134714 13 236 12.9 24.1 0.00 0.00 0.00 90 1009.5
20260506134646 13 169 12.9 24.1 0.00 0.00 0.00 89 1009.5
20260506134537 13 144 16.1 24.1 0.00 0.00 0.00 89 1009.6
20260506134412 13 136 12.9 24.1 0.00 0.00 0.00 89 1009.5
20260506134324 13 158 11.3 24.1 0.00 0.00 0.00 88 1009.5
20260506134215 13 166 12.9 24.1 0.00 0.00 0.00 88 1009.6
20260506134123 13 172 12.9 24.1 0.00 0.00 0.00 88 1009.6
20260506134015 13 152 12.9 24.1 0.00 0.00 0.00 88 1009.7
20260506133927 13 128 16.1 24.1 0.00 0.00 0.00 88 1009.7
20260506133823 13 181 19.3 25.7 0.00 0.00 0.00 88 1009.6
20260506133715 13 164 14.5 27.4 0.00 0.00 0.00 88 1009.5
20260506133624 13 165 12.9 20.9 0.00 0.00 0.00 87 1009.5
20260506133518 13 148 12.9 20.9 0.00 0.00 0.00 87 1009.5
20260506133429 13 162 14.5 20.9 0.00 0.00 0.00 87 1009.4
20260506133342 13 154 9.7 22.5 0.00 0.00 0.00 87 1009.5
20260506133233 13 170 8.0 33.8 0.00 0.00 0.00 87 1009.4
20260506133125 13 157 9.7 33.8 0.00 0.00 0.00 87 1009.4
20260506133016 13 127 11.3 43.5 0.00 0.00 0.00 86 1009.6
20260506132929 13 158 12.9 43.5 0.00 0.00 0.00 86 1009.6
20260506132820 13 172 12.9 43.5 0.00 0.00 0.00 86 1009.5
20260506132752 13 124 9.7 43.5 0.00 0.00 0.00 86 1009.5
20260506132628 13 157 6.4 43.5 0.00 0.00 0.00 86 1009.7
20260506132520 13 73 8.0 43.5 0.00 0.00 0.00 85 1009.5
20260506132413 13 146 14.5 43.5 0.00 0.00 0.00 85 1009.5
20260506132325 13 165 16.1 43.5 0.00 0.00 0.00 85 1009.5
20260506132218 13 208 19.3 43.5 0.00 0.00 0.00 85 1009.5
20260506132114 13 124 17.7 43.5 0.00 0.00 0.00 85 1009.7
20260506132027 13 286 19.3 43.5 0.00 0.00 0.00 86 1009.7
20260506131938 13 153 14.5 25.7 0.00 0.00 0.00 87 1009.5
20260506131828 14 170 11.3 25.7 0.00 0.00 0.00 89 1009.5
20260506131720 14 173 8.0 25.7 0.00 0.00 0.00 89 1009.6
20260506131613 14 147 8.0 25.7 0.00 0.00 0.00 89 1009.6
20260506131530 14 155 11.3 25.7 0.00 0.00 0.00 89 1009.6
20260506131441 14 84 11.3 25.7 0.00 0.00 0.00 89 1009.5
20260506131313 14 193 12.9 27.4 0.00 0.00 0.00 90 1009.7
20260506131225 14 186 14.5 27.4 0.00 0.00 0.00 89 1009.7
20260506131118 14 168 17.7 27.4 0.00 0.00 0.00 89 1009.6
20260506131012 14 132 12.9 24.1 0.00 0.00 0.00 89 1009.7
20260506130925 14 138 9.7 24.1 0.00 0.00 0.00 89 1009.7
20260506130818 14 157 8.0 24.1 0.00 0.00 0.00 89 1009.7
20260506130729 14 142 11.3 24.1 0.00 0.00 0.00 89 1009.7
20260506130620 14 172 11.3 24.1 0.00 0.00 0.00 89 1009.9
20260506130515 14 182 9.7 24.1 0.00 0.00 0.00 90 1009.9
20260506130426 14 173 11.3 27.4 0.00 0.00 0.00 90 1009.9
20260506130359 14 220 12.9 27.4 0.00 0.00 0.00 90 1009.9
20260506130310 14 191 12.9 45.1 0.00 0.00 0.00 90 1009.8
20260506130238 14 186 9.7 45.1 0.00 0.00 0.00 90 1009.8
20260506130033 14 132 9.7 45.1 0.00 0.00 0.00 90 1009.8
20260506125828 14 167 11.3 45.1 0.00 0.00 0.00 90 1009.7
20260506125721 14 159 14.5 45.1 0.00 0.00 0.00 90 1009.6
20260506125617 14 167 17.7 45.1 0.00 0.00 0.00 90 1009.6
20260506125530 14 143 22.5 45.1 0.00 0.00 0.00 90 1009.6
20260506125440 15 187 22.5 45.1 0.00 0.00 0.00 90 1009.6
20260506125331 15 179 22.5 45.1 0.00 0.00 0.00 90 1009.6
20260506125223 15 171 27.4 45.1 0.00 0.00 0.00 89 1009.6
20260506125115 15 196 22.5 45.1 0.00 0.00 0.00 89 1009.5
20260506125012 15 223 16.1 43.5 0.00 0.00 0.00 90 1009.6
20260506124924 15 165 16.1 43.5 0.00 0.00 0.00 90 1009.6
20260506124836 15 189 22.5 43.5 0.00 0.00 0.00 90 1009.7
20260506124651 15 186 20.9 43.5 0.00 0.00 0.00 90 1009.4
20260506124523 15 171 17.7 43.5 0.00 0.00 0.00 90 1009.6
20260506124440 15 159 17.7 43.5 0.00 0.00 0.00 90 1009.4
20260506124330 15 223 17.7 43.5 0.00 0.00 0.00 89 1009.5
20260506124223 15 232 24.1 49.9 0.00 0.00 0.00 89 1009.4
20260506124135 15 193 20.9 49.9 0.00 0.00 0.00 89 1009.5
20260506124026 15 226 19.3 57.9 0.00 0.00 0.00 89 1009.5
20260506123939 15 151 17.7 57.9 0.00 0.00 0.00 89 1009.4
20260506123815 15 163 22.5 57.9 0.00 0.00 0.00 89 1009.5
20260506123726 15 174 20.9 57.9 0.00 0.00 0.00 89 1009.5
20260506123618 15 177 20.9 57.9 0.00 0.00 0.00 89 1009.4
20260506123530 15 176 22.5 57.9 0.00 0.00 0.00 89 1009.4
20260506123423 15 183 30.6 57.9 0.00 0.00 0.00 88 1009.5
20260506123315 15 212 30.6 57.9 0.00 0.00 0.00 88 1009.5
20260506123212 15 192 33.8 57.9 0.00 0.00 0.00 87 1009.6
20260506123125 15 225 35.4 57.9 0.00 0.00 0.00 86 1009.6
20260506123017 15 185 37.0 56.3 0.00 0.00 0.00 86 1009.5
20260506122929 15 185 32.2 48.3 0.00 0.00 0.00 86 1009.5
20260506122821 15 200 32.2 48.3 0.00 0.00 0.00 86 1009.4
20260506122737 15 232 30.6 48.3 0.00 0.00 0.00 86 1009.4
20260506122628 15 182 29.0 48.3 0.00 0.00 0.00 85 1009.4
20260506122541 15 187 30.6 48.3 0.00 0.00 0.00 85 1009.4
20260506122413 15 178 30.6 51.5 0.00 0.00 0.00 85 1009.2
20260506122325 15 202 29.0 51.5 0.00 0.00 0.00 85 1009.2
20260506122218 15 209 32.2 51.5 0.00 0.00 0.00 85 1009.2
20260506122134 15 213 32.2 51.5 0.00 0.00 0.00 85 1009.2
20260506122025 15 204 30.6 51.5 0.00 0.00 0.00 85 1009.2
20260506121917 15 180 30.6 51.5 0.00 0.00 0.00 84 1009.2
20260506121829 15 203 30.6 51.5 0.00 0.00 0.00 85 1009.2
20260506121722 15 183 30.6 51.5 0.00 0.00 0.00 85 1009.2
20260506121618 15 240 30.6 51.5 0.00 0.00 0.00 85 1009.2
20260506121530 15 186 29.0 51.5 0.00 0.00 0.00 85 1009.2
20260506121422 15 202 29.0 46.7 0.00 0.00 0.00 86 1009.3
20260506121314 15 213 27.4 46.7 0.00 0.00 0.00 86 1009.3
20260506121226 15 205 25.7 45.1 0.00 0.00 0.00 87 1009.3
20260506121137 15 180 29.0 49.9 0.00 0.00 0.00 86 1009.2
20260506121053 15 221 29.0 49.9 0.00 0.00 0.00 86 1009.2
20260506120924 15 213 30.6 49.9 0.00 0.00 0.00 86 1009.2
20260506120816 15 198 30.6 49.9 0.00 0.00 0.00 86 1009.3
20260506120729 15 182 32.2 49.9 0.00 0.00 0.00 87 1009.3
20260506120641 15 211 32.2 49.9 0.00 0.00 0.00 87 1009.2
20260506120533 15 184 30.6 49.9 0.00 0.00 0.00 87 1009.2
20260506120443 15 198 29.0 49.9 0.00 0.00 0.00 87 1009.2
20260506120317 15 228 30.6 49.9 0.00 0.00 0.00 87 1009.3
20260506120228 15 219 30.6 49.9 0.00 0.00 0.00 87 1009.2
20260506120119 15 199 29.0 45.1 0.00 0.00 0.00 87 1009.4
20260506120030 15 187 29.0 38.6 0.00 0.00 0.00 87 1009.3
20260506115921 15 183 27.4 38.6 0.00 0.00 0.00 88 1009.3
20260506115831 15 173 24.1 43.5 0.00 0.00 0.00 88 1009.3
20260506115725 15 185 22.5 43.5 0.00 0.00 0.00 88 1009.4
20260506115616 15 190 24.1 43.5 0.00 0.00 0.00 88 1009.3
20260506115529 15 207 24.1 43.5 0.00 0.00 0.00 88 1009.3
20260506115421 15 202 22.5 43.5 0.00 0.00 0.00 88 1009.3
20260506115313 15 217 22.5 43.5 0.00 0.00 0.00 88 1009.2
20260506115228 15 200 22.5 43.5 0.00 0.00 0.00 88 1009.2
20260506115120 15 242 19.3 43.5 0.00 0.00 0.00 89 1009.2
20260506115031 15 184 20.9 43.5 0.00 0.00 0.00 89 1009.4
20260506114923 15 232 20.9 43.5 0.00 0.00 0.00 89 1009.3
20260506114815 15 213 22.5 41.8 0.00 0.00 0.00 89 1009.4
20260506114730 15 217 22.5 41.8 0.00 0.00 0.00 88 1009.4
20260506114624 15 206 25.7 45.1 0.00 0.00 0.00 89 1009.4
20260506114535 15 232 25.7 45.1 0.00 0.00 0.00 88 1009.3
20260506114425 15 187 25.7 45.1 0.00 0.00 0.00 88 1009.3
20260506114317 15 181 30.6 45.1 0.00 0.00 0.00 88 1009.3
20260506114227 15 220 30.6 45.1 0.00 0.00 0.00 88 1009.3
20260506114122 15 188 27.4 45.1 0.00 0.00 0.00 88 1009.3
20260506114032 15 188 25.7 45.1 0.00 0.00 0.00 88 1009.3
20260506113922 15 189 24.1 45.1 0.00 0.00 0.00 88 1009.4
20260506113833 15 211 27.4 45.1 0.00 0.00 0.00 88 1009.4
20260506113744 15 204 29.0 45.1 0.00 0.00 0.00 88 1009.4
20260506113613 15 169 29.0 45.1 0.00 0.00 0.00 89 1009.4
20260506113524 15 201 27.4 45.1 0.00 0.00 0.00 89 1009.4
20260506113418 15 180 24.1 40.2 0.00 0.00 0.00 89 1009.5
20260506113328 15 209 24.1 40.2 0.00 0.00 0.00 89 1009.5
20260506113240 15 187 22.5 40.2 0.00 0.00 0.00 89 1009.4
20260506113131 15 232 24.1 40.2 0.00 0.00 0.00 89 1009.4
20260506113024 15 200 25.7 40.2 0.00 0.00 0.00 89 1009.4
20260506112915 15 216 27.4 40.2 0.00 0.00 0.00 89 1009.4
20260506112830 15 175 29.0 48.3 0.00 0.00 0.00 90 1009.4
20260506112741 15 229 30.6 48.3 0.00 0.00 0.00 90 1009.4
20260506112631 15 225 27.4 48.3 0.00 0.00 0.00 90 1009.5
20260506112524 15 213 24.1 48.3 0.00 0.00 0.00 90 1009.4
20260506112434 15 190 22.5 48.3 0.00 0.00 0.00 90 1009.5
20260506112323 15 239 20.9 48.3 0.00 0.00 0.00 90 1009.5
20260506112220 15 265 22.5 48.3 0.00 0.00 0.00 90 1009.5
20260506112152 15 217 24.1 48.3 0.00 0.00 0.00 90 1009.4
20260506112021 15 213 29.0 48.3 0.00 0.00 0.00 90 1009.5
20260506111913 15 208 27.4 48.3 0.00 0.00 0.00 90 1009.4
20260506111825 14 207 20.9 35.4 0.00 0.00 0.00 91 1009.4
20260506111721 14 210 19.3 35.4 0.00 0.00 0.00 91 1009.4
20260506111612 14 211 20.9 35.4 0.00 0.00 0.00 91 1009.4
20260506111525 14 177 22.5 35.4 0.00 0.00 0.00 91 1009.4
20260506111437 14 166 20.9 35.4 0.00 0.00 0.00 91 1009.4
20260506111327 14 198 20.9 35.4 0.00 0.00 0.00 91 1009.4
20260506111223 14 199 22.5 35.4 0.00 0.00 0.00 91 1009.4
20260506111115 14 178 20.9 35.4 0.00 0.00 0.00 91 1009.4
20260506111048 14 202 19.3 35.4 0.00 0.00 0.00 91 1009.4
20260506110917 14 140 20.9 40.2 0.00 0.00 0.00 91 1009.4
20260506110828 14 188 20.9 40.2 0.00 0.00 0.00 91 1009.4
20260506110739 14 142 24.1 40.2 0.00 0.00 0.00 91 1009.3
20260506110614 14 174 22.5 40.2 0.00 0.00 0.00 91 1009.3
20260506110526 14 159 19.3 40.2 0.00 0.00 0.00 91 1009.3
20260506110418 14 211 19.3 40.2 0.00 0.00 0.00 91 1009.4
20260506110328 14 179 17.7 40.2 0.00 0.00 0.00 91 1009.4
20260506110220 14 186 17.7 40.2 0.00 0.00 0.00 91 1009.4
20260506110116 14 194 19.3 40.2 0.00 0.00 0.00 90 1009.4
20260506110027 14 166 17.7 40.2 0.00 0.00 0.00 90 1009.4
20260506105918 14 188 19.3 38.6 0.00 0.71 0.00 90 1009.4
20260506105829 14 186 24.1 41.8 0.00 0.71 0.00 90 1009.4
20260506105722 14 184 25.7 41.8 0.00 0.71 0.00 90 1009.5
20260506105615 14 179 24.1 41.8 0.00 0.71 0.00 90 1009.5
20260506105531 14 218 22.5 41.8 0.00 0.71 0.00 90 1009.5
20260506105420 14 184 19.3 41.8 0.00 0.71 0.00 90 1009.6
20260506105348 14 196 22.5 41.8 0.00 0.71 0.00 90 1009.6
20260506105218 14 198 19.3 41.8 0.00 0.71 0.00 90 1009.6
20260506105130 14 184 20.9 41.8 0.00 0.71 0.00 91 1009.6
20260506105022 14 217 20.9 41.8 0.00 0.71 0.00 90 1009.7
20260506104918 14 187 22.5 41.8 0.00 0.71 0.00 90 1009.7
20260506104828 14 183 22.5 40.2 0.00 0.71 0.00 91 1009.6
20260506104739 14 225 20.9 37.0 0.00 0.71 0.00 90 1009.6
20260506104629 14 171 19.3 37.0 0.00 0.71 0.00 91 1009.6
20260506104523 14 242 22.5 37.0 0.00 0.71 0.00 90 1009.6
20260506104416 14 196 22.5 37.0 0.00 0.71 0.00 90 1009.6
20260506104327 14 167 22.5 35.4 0.00 0.71 0.00 91 1009.6
20260506104239 14 183 22.5 35.4 0.00 0.71 0.00 90 1009.7
20260506104130 14 182 24.1 35.4 0.00 0.71 0.00 90 1009.7
20260506104022 14 229 24.1 35.4 0.00 0.71 0.00 91 1009.6
20260506103934 14 196 24.1 35.4 0.00 0.71 0.00 91 1009.7
20260506103849 14 216 24.1 35.4 0.00 0.71 0.00 91 1009.7
20260506103740 14 200 25.7 35.4 0.00 0.71 0.00 91 1009.7
20260506103631 14 180 22.5 35.4 0.00 0.71 0.00 91 1009.8
20260506103523 14 178 20.9 38.6 0.00 0.71 0.00 91 1009.8
20260506103413 14 227 20.9 45.1 0.00 0.71 0.00 91 1009.8
20260506103324 14 178 19.3 45.1 0.00 0.71 0.00 92 1009.8
20260506103220 14 185 19.3 45.1 0.00 0.71 0.00 92 1009.8
20260506103112 14 168 19.3 45.1 0.00 0.71 0.00 92 1009.9
20260506103023 14 179 22.5 43.5 0.00 0.71 0.00 92 1009.9
20260506102935 14 211 24.1 43.5 0.00 0.71 0.00 92 1009.9
20260506102826 14 175 24.1 43.5 0.00 0.71 0.00 92 1009.9
20260506102723 13 200 25.7 43.5 0.00 0.71 0.00 92 1009.8
20260506102613 13 182 25.7 43.5 0.00 0.71 0.00 92 1009.8
20260506102523 13 186 25.7 43.5 0.00 0.71 0.00 92 1009.8
20260506102415 13 184 24.1 43.5 0.00 0.71 0.00 93 1009.8
20260506102326 13 177 22.5 43.5 0.00 0.71 0.00 93 1009.8
20260506102218 13 209 22.5 43.5 0.00 0.71 0.00 93 1009.8
20260506102135 13 171 20.9 43.5 0.00 0.71 0.00 93 1009.8
20260506102025 13 186 20.9 40.2 0.00 0.71 0.00 93 1009.8
20260506101915 13 177 22.5 40.2 0.00 0.71 0.00 93 1009.9
20260506101827 13 178 22.5 40.2 0.00 0.71 0.00 93 1009.9
20260506101718 13 213 20.9 40.2 0.00 0.71 0.00 93 1009.8
20260506101649 13 232 20.9 40.2 0.00 0.71 0.00 93 1009.9
20260506101523 13 122 24.1 41.8 0.00 0.71 0.00 93 1009.8
20260506101414 13 178 24.1 41.8 0.00 0.71 0.00 93 1009.7
20260506101325 13 205 22.5 41.8 0.00 0.71 0.00 93 1009.7
20260506101216 13 205 22.5 41.8 0.00 0.71 0.00 93 1009.7
20260506101128 13 242 20.9 41.8 0.00 0.71 0.00 93 1009.7
20260506101041 13 193 20.9 41.8 0.00 0.71 0.00 93 1009.8
20260506100915 13 177 22.5 41.8 0.00 0.71 0.00 94 1009.9
20260506100826 13 210 20.9 41.8 0.00 0.71 0.00 93 1009.9
20260506100718 13 183 24.1 41.8 0.00 0.71 0.00 93 1009.8
20260506100629 13 208 25.7 41.8 0.00 0.71 0.00 93 1009.7
20260506100522 13 150 29.0 46.7 0.00 0.71 0.00 93 1009.7
20260506100416 13 194 25.7 41.8 0.00 0.71 0.00 94 1009.7
20260506100325 13 198 24.1 41.8 0.00 0.71 0.00 93 1009.7
20260506100214 13 186 22.5 41.8 0.00 0.71 0.00 93 1009.7
20260506100125 13 190 22.5 41.8 0.00 0.71 0.00 93 1009.7
20260506100018 13 221 20.9 41.8 0.00 0.71 0.00 93 1009.8
20260506095929 13 188 20.9 41.8 0.00 2.69 0.00 93 1009.7
20260506095825 13 235 24.1 41.8 0.00 2.69 0.00 93 1009.7
20260506095737 13 209 25.7 41.8 0.00 2.69 0.00 93 1009.7
20260506095627 13 210 24.1 41.8 0.00 2.69 0.00 93 1009.7
20260506095519 13 197 24.1 41.8 0.00 2.69 0.00 93 1009.7
20260506095450 13 172 22.5 41.8 0.00 2.69 0.00 93 1009.7
20260506095339 13 222 25.7 41.8 0.00 2.69 0.00 93 1009.8
20260506095227 13 182 25.7 41.8 0.00 2.69 0.00 93 1009.7
20260506095122 13 201 27.4 41.8 0.00 2.69 0.00 93 1009.9
20260506095013 13 213 22.5 45.1 0.00 2.69 0.00 93 1009.8
20260506094925 13 205 24.1 45.1 0.00 2.69 0.00 93 1009.8
20260506094817 13 200 24.1 45.1 0.00 2.69 0.00 93 1009.7
20260506094728 12 178 22.5 45.1 0.00 2.69 0.00 93 1009.8
20260506094620 12 223 17.7 45.1 0.00 2.69 0.00 93 1009.8
20260506094516 12 213 17.7 45.1 0.00 2.69 0.00 93 1009.8
20260506094427 12 186 20.9 45.1 0.00 2.69 0.00 93 1009.8
20260506094316 12 198 20.9 45.1 0.00 2.69 0.00 93 1009.7
20260506094226 12 144 20.9 45.1 0.00 2.69 0.00 93 1009.7
20260506094117 12 180 24.1 45.1 0.00 2.69 0.00 93 1009.8
20260506094027 12 169 19.3 43.5 0.00 2.69 0.00 93 1009.8
20260506093941 12 173 17.7 35.4 0.00 2.69 0.00 93 1009.8
20260506093831 12 190 16.1 35.4 0.00 2.69 0.00 93 1009.7
20260506093721 12 175 16.1 40.2 0.00 2.69 0.00 93 1009.8
20260506093612 12 186 14.5 40.2 0.00 2.69 0.00 93 1009.7
20260506093526 12 188 16.1 40.2 0.00 2.69 0.00 93 1009.7
20260506093420 12 161 19.3 40.2 0.00 2.69 0.00 93 1009.7
20260506093330 12 184 22.5 40.2 0.00 2.69 0.00 93 1009.8
20260506093222 12 175 22.5 40.2 0.00 2.69 0.00 93 1009.8
20260506093114 13 184 20.9 40.2 0.00 2.69 0.00 93 1009.8
20260506093026 12 174 22.5 40.2 0.00 2.69 0.00 93 1009.8
20260506092937 12 211 25.7 40.2 0.00 2.69 0.00 93 1009.8
20260506092830 12 219 25.7 40.2 0.00 2.69 0.00 93 1009.8
20260506092722 13 200 24.1 38.6 0.00 2.69 0.00 93 1009.7
20260506092612 13 189 19.3 45.1 0.00 2.69 0.00 93 1009.8
20260506092525 13 200 19.3 45.1 0.00 2.69 0.00 93 1009.8
20260506092413 13 194 24.1 45.1 0.00 2.69 0.00 93 1009.8
20260506092323 13 186 24.1 45.1 0.00 2.69 0.00 93 1009.8
20260506092218 13 174 20.9 45.1 0.00 2.69 0.00 93 1009.7
20260506092131 12 211 24.1 45.1 0.00 2.69 0.00 93 1009.7
20260506092045 12 211 29.0 45.1 0.00 2.69 0.00 93 1009.7
20260506091914 12 229 29.0 45.1 0.00 2.69 0.00 93 1009.7
20260506091825 13 205 27.4 45.1 0.00 2.69 0.00 93 1009.7
20260506091741 13 194 27.4 45.1 0.00 2.69 0.00 93 1009.7
20260506091631 12 185 24.1 38.6 0.00 2.69 0.00 93 1009.7
20260506091522 13 200 25.7 40.2 0.00 2.69 0.00 93 1009.7
20260506091433 13 215 22.5 38.6 0.00 2.69 0.00 93 1009.7
20260506091321 13 148 19.3 38.6 0.00 2.69 0.00 93 1009.7
20260506091213 13 175 17.7 35.4 0.00 2.69 0.00 93 1009.6
20260506091129 13 188 20.9 35.4 0.00 2.69 0.00 93 1009.6
20260506091020 13 171 19.3 35.4 0.00 2.69 0.00 93 1009.7
20260506090952 13 175 17.7 35.4 0.00 2.69 0.00 93 1009.7
20260506090822 13 215 17.7 35.4 0.00 2.69 0.00 93 1009.7
20260506090712 13 193 19.3 35.4 0.00 2.69 0.00 93 1009.7
20260506090623 13 209 19.3 35.4 0.00 2.69 0.00 93 1009.7
20260506090519 13 161 19.3 35.4 0.00 2.69 0.00 93 1009.7
20260506090430 13 185 19.3 35.4 0.00 2.69 0.00 93 1009.7
20260506090321 13 213 17.7 35.4 0.00 2.69 0.00 93 1009.7
20260506090231 13 185 17.7 35.4 0.00 2.69 0.00 93 1009.7
20260506090124 13 196 22.5 35.4 0.00 2.69 0.00 93 1009.7
20260506090012 13 150 25.7 35.4 0.00 4.50 0.00 93 1009.7
20260506085927 13 208 24.1 40.2 0.00 4.50 0.00 94 1009.7
20260506085819 13 175 20.9 37.0 0.00 4.50 0.00 93 1009.7
20260506085712 13 231 17.7 37.0 0.00 4.50 0.00 93 1009.6
20260506085623 13 211 17.7 37.0 0.00 4.50 0.00 93 1009.6
20260506085514 12 183 19.3 37.0 0.00 4.50 0.00 93 1009.6
20260506085425 12 227 17.7 37.0 0.00 4.50 0.00 94 1009.6
20260506085339 12 180 16.1 37.0 0.00 4.50 0.00 93 1009.5
20260506085229 13 226 19.3 37.0 0.00 4.50 0.00 93 1009.6
20260506085121 12 205 24.1 37.0 0.00 4.50 0.00 93 1009.6
20260506085031 12 219 27.4 37.0 0.00 4.50 0.00 94 1009.6
20260506084921 12 219 27.4 38.6 0.00 4.50 0.00 94 1009.6
20260506084837 12 207 25.7 35.4 0.00 4.50 0.00 94 1009.6
20260506084727 12 221 24.1 35.4 0.00 4.50 0.00 93 1009.6
20260506084618 12 246 20.9 40.2 0.00 4.50 0.00 93 1009.5
20260506084531 12 236 17.7 41.8 0.00 4.50 0.00 93 1009.6
20260506084422 12 236 19.3 41.8 0.00 4.50 0.00 93 1009.6
20260506084331 12 202 22.5 41.8 0.00 4.50 0.00 93 1009.7
20260506084226 12 224 25.7 48.3 0.00 4.50 0.00 93 1009.7
20260506084117 12 188 25.7 48.3 0.00 4.50 0.00 93 1009.7
20260506084030 12 186 24.1 48.3 0.00 4.50 0.00 93 1009.7
20260506083921 12 207 25.7 48.3 0.00 4.50 0.00 93 1009.7
20260506083833 12 184 25.7 48.3 0.00 4.50 0.00 93 1009.8
20260506083723 12 188 29.0 48.3 0.00 4.50 0.00 93 1009.8
20260506083619 12 215 29.0 48.3 0.00 4.50 0.00 93 1009.8
20260506083531 12 228 29.0 48.3 0.00 4.50 0.00 93 1009.7
20260506083421 12 209 30.6 48.3 0.00 4.50 0.00 93 1009.8
20260506083313 12 226 29.0 48.3 0.00 4.50 0.00 93 1009.7
20260506083224 12 219 29.0 51.5 0.00 4.50 0.00 93 1009.7
20260506083118 12 208 27.4 43.5 0.00 4.50 0.00 93 1009.8
20260506083025 12 207 29.0 43.5 0.00 4.50 0.00 93 1009.7
20260506082917 12 205 27.4 43.5 0.00 4.50 0.00 93 1009.8
20260506082828 12 215 25.7 45.1 0.00 4.50 0.00 93 1009.6
20260506082718 12 236 20.9 37.0 0.00 4.50 0.00 93 1009.6
20260506082614 12 259 20.9 41.8 0.00 4.50 0.00 93 1009.7
20260506082527 12 190 22.5 41.8 0.00 4.50 0.00 93 1009.7
20260506082419 12 240 22.5 41.8 0.00 4.50 0.00 93 1009.5
20260506082330 12 200 19.3 41.8 0.00 4.50 0.00 93 1009.6
20260506082221 12 215 19.3 41.8 0.00 4.50 0.00 93 1009.6
20260506082117 12 173 20.9 41.8 0.00 4.50 0.00 93 1009.6
20260506082027 12 200 20.9 41.8 0.00 4.50 0.00 93 1009.5
20260506081918 12 182 22.5 41.8 0.00 4.50 0.00 93 1009.6
20260506081829 12 204 22.5 41.8 0.00 4.50 0.00 93 1009.7
20260506081720 12 221 27.4 41.8 0.00 4.50 0.00 93 1009.5
20260506081614 12 242 20.9 40.2 0.00 4.50 0.00 93 1009.5
20260506081527 12 209 19.3 37.0 0.00 4.50 0.00 93 1009.5
20260506081419 12 223 16.1 37.0 0.00 4.50 0.00 93 1009.6
20260506081329 12 264 16.1 37.0 0.00 4.50 0.00 94 1009.5
20260506081240 12 176 17.7 33.8 0.00 4.50 0.00 93 1009.6
20260506081130 12 241 19.3 33.8 0.00 4.50 0.00 94 1009.5
20260506081024 12 211 17.7 33.8 0.00 4.50 0.00 94 1009.5
20260506080916 12 187 16.1 33.8 0.00 4.50 0.00 94 1009.5
20260506080827 12 191 17.7 33.8 0.00 4.50 0.00 94 1009.5
20260506080719 12 221 16.1 33.8 0.00 4.50 0.00 94 1009.5
20260506080631 12 234 16.1 30.6 0.00 4.50 0.00 94 1009.5
20260506080527 12 217 14.5 30.6 0.00 4.50 0.00 94 1009.5
20260506080416 12 198 19.3 30.6 0.00 4.50 0.00 94 1009.5
20260506080231 12 162 19.3 35.4 0.00 4.50 0.00 94 1009.4
20260506080144 12 167 16.1 30.6 0.00 4.50 0.00 94 1009.5
20260506073515 12 211 16.1 30.6 0.00 4.50 0.00 94 1009.5
20260506073427 12 203 14.5 30.6 0.00 4.50 0.00 94 1009.5
20260506073318 12 194 14.5 30.6 0.00 4.50 0.00 94 1009.4
20260506073213 12 183 16.1 30.6 0.00 4.50 0.00 94 1009.4
20260506073124 12 248 17.7 30.6 0.00 4.50 0.00 94 1009.4
20260506073015 12 179 17.7 30.6 0.00 4.50 0.00 93 1009.4
20260506072947 12 187 16.1 30.6 0.00 4.50 0.00 94 1009.4
20260506072818 12 215 17.7 30.6 0.00 4.50 0.00 94 1009.4
20260506072714 12 177 19.3 30.6 0.00 4.50 0.00 93 1009.4
20260506072627 12 215 19.3 32.2 0.00 4.50 0.00 93 1009.4
20260506072520 12 216 19.3 32.2 0.00 4.50 0.00 93 1009.4
20260506072431 12 190 19.3 32.2 0.00 4.50 0.00 93 1009.5
20260506072321 12 171 20.9 35.4 0.00 4.50 0.00 94 1009.4
20260506072218 12 173 20.9 35.4 0.00 4.50 0.00 93 1009.4
20260506072131 12 213 19.3 35.4 0.00 4.50 0.00 93 1009.4
20260506072024 12 188 16.1 35.4 0.00 4.50 0.00 93 1009.4
20260506071936 12 234 16.1 35.4 0.00 4.50 0.00 93 1009.5
20260506071826 12 182 14.5 35.4 0.00 4.50 0.00 93 1009.5
20260506071718 12 169 17.7 35.4 0.00 4.50 0.00 93 1009.5
20260506071613 12 186 19.3 35.4 0.00 4.50 0.00 93 1009.4
20260506071526 12 205 20.9 35.4 0.00 4.50 0.00 93 1009.4
20260506071417 12 179 20.9 35.4 0.00 4.50 0.00 93 1009.4
20260506071330 12 190 17.7 33.8 0.00 4.50 0.00 93 1009.4
20260506071223 12 214 17.7 29.0 0.00 4.50 0.00 93 1009.4
20260506071120 12 150 20.9 33.8 0.00 4.50 0.00 93 1009.4
20260506071012 12 217 19.3 33.8 0.00 4.50 0.00 94 1009.4
20260506070925 12 198 17.7 33.8 0.00 4.50 0.00 94 1009.4
20260506070815 12 139 19.3 33.8 0.00 4.50 0.00 93 1009.3
20260506070748 12 185 20.9 33.8 0.00 4.50 0.00 94 1009.3
20260506070623 12 212 19.3 33.8 0.00 4.50 0.00 94 1009.4
20260506070518 12 201 19.3 33.8 0.00 4.50 0.00 94 1009.4
20260506070426 12 198 20.9 33.8 0.00 4.50 0.00 93 1009.3
20260506070318 12 212 19.3 33.8 0.00 4.50 0.00 93 1009.4
20260506070229 12 186 19.3 33.8 0.00 4.50 0.00 93 1009.4
20260506070121 12 169 17.7 32.2 0.00 4.50 0.00 93 1009.4
20260506062515 12 198 19.3 30.6 0.00 7.39 0.00 93 1009.5
20260506062428 12 199 20.9 30.6 0.00 7.39 0.00 93 1009.5
20260506062321 12 220 19.3 30.6 0.00 7.39 0.00 93 1009.4
20260506062217 12 194 16.1 32.2 0.00 7.39 0.00 94 1009.4
20260506062130 12 175 12.9 32.2 0.00 7.39 0.00 93 1009.4
20260506062023 12 221 14.5 32.2 0.00 7.39 0.00 93 1009.4
20260506061916 12 199 19.3 32.2 0.00 7.39 0.00 93 1009.3
20260506061828 12 192 19.3 32.2 0.00 7.39 0.00 93 1009.3
20260506061725 12 212 19.3 32.2 0.00 7.39 0.00 94 1009.4
20260506061617 12 211 17.7 32.2 0.00 7.39 0.00 93 1009.4
20260506061549 12 185 20.9 32.2 0.00 7.39 0.00 94 1009.4
20260506061441 12 198 20.9 32.2 0.00 7.39 0.00 93 1009.4
20260506061314 12 196 17.7 30.6 0.00 7.39 0.00 94 1009.5
20260506061224 12 165 17.7 30.6 0.00 7.39 0.00 94 1009.5
20260506061140 12 205 14.5 30.6 0.00 7.39 0.00 94 1009.4
20260506061031 12 167 16.1 30.6 0.00 7.39 0.00 94 1009.5
20260506060922 12 216 17.7 30.6 0.00 7.39 0.00 94 1009.5
20260506060834 12 204 17.7 30.6 0.00 7.39 0.00 94 1009.5
20260506060726 12 182 17.7 30.6 0.00 7.39 0.00 94 1009.5
20260506060638 12 186 16.1 30.6 0.00 7.39 0.00 94 1009.5
20260506060513 12 232 16.1 30.6 0.00 7.39 0.00 94 1009.5
20260506060426 12 184 17.7 30.6 0.00 7.39 0.00 94 1009.5
20260506060319 12 222 16.1 30.6 0.00 7.39 0.00 94 1009.5
20260506060231 12 207 14.5 35.4 0.00 7.39 0.00 93 1009.5
20260506060123 12 223 16.1 35.4 0.00 7.39 0.00 94 1009.5
20260506051313 12 213 16.1 29.0 0.00 11.10 0.00 93 1009.5
20260506051226 12 192 14.5 29.0 0.00 11.10 0.00 93 1009.5
20260506051119 12 167 16.1 29.0 0.00 11.10 0.00 93 1009.6
20260506051017 12 181 14.5 29.0 0.00 11.10 0.00 93 1009.5
20260506050929 12 193 14.5 29.0 0.00 11.10 0.00 93 1009.5
20260506050820 12 219 16.1 29.0 0.00 11.10 0.00 93 1009.5
20260506050752 12 179 16.1 29.0 0.00 11.10 0.00 93 1009.6
20260506050622 12 196 16.1 27.4 0.00 11.10 0.00 93 1009.5
20260506050535 12 194 16.1 30.6 0.00 11.10 0.00 93 1009.5
20260506050431 12 205 16.1 30.6 0.00 11.10 0.00 93 1009.5
20260506050324 12 171 14.5 30.6 0.00 11.10 0.00 93 1009.5
20260506050236 12 186 12.9 30.6 0.00 11.10 0.00 93 1009.6
20260506050147 12 188 14.5 30.6 0.00 11.10 0.00 93 1009.6
20260506045114 12 197 14.5 22.5 0.00 11.91 0.00 94 1009.6
20260506045046 12 207 12.9 19.3 0.00 11.91 0.00 94 1009.6
20260506044937 12 171 14.5 19.3 0.00 11.91 0.00 93 1009.6
20260506044848 12 202 14.5 19.3 0.00 11.91 0.00 94 1009.6
20260506044720 12 176 14.5 20.9 0.00 11.91 0.00 94 1009.7
20260506044616 12 182 12.9 20.9 0.00 11.91 0.00 94 1009.7
20260506044529 11 229 14.5 20.9 0.00 11.91 0.00 94 1009.7
20260506044421 11 190 14.5 20.9 0.00 11.91 0.00 94 1009.7
20260506044314 11 186 12.9 19.3 0.00 11.91 0.00 94 1009.7
20260506044226 11 186 9.7 19.3 0.00 11.91 0.00 94 1009.7
20260506044143 11 198 9.7 19.3 0.00 11.91 0.00 93 1009.7
20260506044014 11 202 11.3 19.3 0.00 11.91 0.00 93 1009.7
20260506043927 11 183 11.3 19.3 0.00 11.91 0.00 93 1009.7
20260506043819 11 215 11.3 19.3 0.00 11.91 0.00 93 1009.7
20260506043730 11 209 12.9 19.3 0.00 11.91 0.00 93 1009.7
20260506043643 11 193 12.9 19.3 0.00 11.91 0.00 93 1009.8
20260506043518 11 184 12.9 19.3 0.00 11.91 0.00 93 1009.8
20260506043429 11 203 12.9 19.3 0.00 11.91 0.00 93 1009.8
20260506043320 11 203 11.3 14.5 0.00 11.91 0.00 93 1009.9
20260506043213 11 186 9.7 14.5 0.00 11.91 0.00 93 1009.9
20260506043125 11 190 8.0 14.5 0.00 11.91 0.00 93 1009.9
20260506043018 11 183 8.0 14.5 0.00 11.91 0.00 93 1009.9
20260506042933 11 188 8.0 14.5 0.00 11.91 0.00 93 1010.0
20260506042825 11 189 9.7 14.5 0.00 11.91 0.00 93 1010.0
20260506042717 11 206 8.0 14.5 0.00 11.91 0.00 94 1010.0
20260506042648 11 194 8.0 14.5 0.00 11.91 0.00 93 1009.9
20260506042519 11 182 6.4 14.5 0.00 11.91 0.00 93 1010.0
20260506042429 11 182 6.4 14.5 0.00 11.91 0.00 93 1010.1
20260506042326 11 180 8.0 14.5 0.00 11.91 0.00 93 1010.1
20260506042216 11 200 8.0 16.1 0.00 11.91 0.00 93 1010.1
20260506042129 11 209 8.0 16.1 0.00 11.91 0.00 93 1010.2
20260506042022 11 231 8.0 16.1 0.00 11.91 0.00 93 1010.1
20260506041934 11 257 9.7 16.1 0.00 11.91 0.00 93 1010.2
20260506041824 11 227 9.7 16.1 0.00 11.91 0.00 93 1010.2
20260506041720 11 213 9.7 16.1 0.00 11.91 0.00 93 1010.2
20260506041612 11 207 8.0 16.1 0.00 11.91 0.00 93 1010.3
20260506041520 11 184 8.0 16.1 0.00 11.91 0.00 93 1010.3
20260506041412 11 178 9.7 16.1 0.00 11.91 0.00 93 1010.3
20260506041325 11 180 11.3 16.1 0.00 11.91 0.00 93 1010.3
20260506041215 11 237 11.3 16.1 0.00 11.91 0.00 93 1010.3
20260506041130 11 226 11.3 16.1 0.00 11.91 0.00 93 1010.3
20260506041044 11 188 11.3 16.1 0.00 11.91 0.00 93 1010.3
20260506040914 11 215 11.3 16.1 0.00 11.91 0.00 93 1010.3
20260506040825 11 229 9.7 16.1 0.00 11.91 0.00 93 1010.3
20260506040737 11 202 9.7 16.1 0.00 11.91 0.00 93 1010.3
20260506040628 11 223 9.7 17.7 0.00 11.91 0.00 93 1010.3
20260506040519 11 198 9.7 16.1 0.00 11.91 0.00 93 1010.3
20260506040414 11 186 9.7 16.1 0.00 11.91 0.00 93 1010.3
20260506040347 11 186 9.7 16.1 0.00 11.91 0.00 93 1010.3
20260506040218 11 215 9.7 16.1 0.00 11.91 0.00 93 1010.3
20260506040147 10 213 9.7 16.1 0.00 11.91 0.00 93 1010.4
20260506040019 11 206 9.7 14.5 0.00 11.91 0.00 93 1010.4
20260506035912 11 225 8.0 14.5 0.00 11.91 0.00 93 1010.3
20260506035828 11 229 8.0 11.3 0.00 11.91 0.00 93 1010.3
20260506035720 11 220 8.0 11.3 0.00 11.91 0.00 93 1010.4
20260506035612 11 240 8.0 12.9 0.00 11.91 0.00 93 1010.5
20260506035524 11 248 8.0 11.3 0.00 11.91 0.00 93 1010.5
20260506035416 11 252 6.4 11.3 0.00 11.91 0.00 93 1010.5
20260506035313 11 169 4.8 8.0 0.00 11.91 0.00 93 1010.4
20260506035225 11 164 4.8 8.0 0.00 11.91 0.00 93 1010.4
20260506035117 11 164 4.8 6.4 0.00 11.91 0.00 93 1010.4
20260506035029 11 164 3.2 8.0 0.00 11.91 0.00 93 1010.4
20260506034922 11 163 3.2 8.0 0.00 11.91 0.00 93 1010.5
20260506034819 11 163 1.6 8.0 0.00 11.91 0.00 93 1010.5
20260506034751 11 163 3.2 8.0 0.00 11.91 0.00 93 1010.4
20260506034622 11 162 3.2 8.0 0.00 11.91 0.00 93 1010.5
20260506034517 11 162 1.6 8.0 0.00 11.91 0.00 93 1010.5
20260506034448 11 162 1.6 8.0 0.00 11.91 0.00 93 1010.4
20260506034340 11 162 1.6 8.0 0.00 11.91 0.00 93 1010.4
20260506034215 11 162 4.8 9.7 0.00 11.91 0.00 93 1010.3
20260506034127 11 162 4.8 11.3 0.00 11.91 0.00 93 1010.3
20260506034019 11 162 4.8 11.3 0.00 11.91 0.00 93 1010.3
20260506033952 11 162 4.8 11.3 0.00 11.91 0.00 93 1010.3
20260506033843 11 162 3.2 11.3 0.00 11.91 0.00 93 1010.3
20260506033734 11 162 3.2 11.3 0.00 11.91 0.00 93 1010.3
20260506033630 11 162 3.2 11.3 0.00 11.91 0.00 93 1010.3
20260506033523 11 162 3.2 12.9 0.00 11.91 0.00 93 1010.3
20260506033435 11 162 6.4 12.9 0.00 11.91 0.00 93 1010.3
20260506033327 11 162 6.4 12.9 0.00 11.91 0.00 93 1010.3
20260506033220 11 163 6.4 12.9 0.00 11.91 0.00 93 1010.3
20260506033116 11 168 4.8 12.9 0.00 11.91 0.00 93 1010.3
20260506033027 11 216 4.8 12.9 0.00 11.91 0.00 93 1010.3
20260506032919 11 216 6.4 12.9 0.00 11.91 0.00 93 1010.2
20260506032831 11 218 6.4 12.9 0.00 11.91 0.00 93 1010.2
20260506032743 11 208 8.0 19.3 0.00 11.91 0.00 93 1010.3
20260506032614 11 208 8.0 20.9 0.00 11.91 0.00 93 1010.4
20260506032530 11 220 6.4 20.9 0.00 11.91 0.00 93 1010.4
20260506032423 11 187 6.4 20.9 0.00 11.91 0.00 93 1010.3
20260506032315 11 187 6.4 22.5 0.00 11.91 0.00 93 1010.5
20260506032228 11 187 6.4 27.4 0.00 11.91 0.00 93 1010.5
20260506032120 11 217 8.0 29.0 0.00 11.91 0.00 93 1010.6
20260506032036 11 216 9.7 29.0 0.00 11.91 0.00 93 1010.7
20260506031927 11 214 11.3 29.0 0.00 11.91 0.00 93 1010.7
20260506031819 11 213 14.5 29.0 0.00 11.91 0.00 93 1010.7
20260506031712 11 215 14.5 29.0 0.00 11.91 0.00 93 1010.9
20260506031625 11 185 14.5 29.0 0.00 11.91 0.00 93 1010.9
20260506031541 11 215 16.1 29.0 0.00 11.91 0.00 93 1010.9
20260506031412 11 220 17.7 29.0 0.00 11.91 0.00 93 1010.7
20260506031344 11 211 19.3 29.0 0.00 11.91 0.00 93 1010.7
20260506031215 11 215 16.1 29.0 0.00 11.91 0.00 93 1010.8
20260506031127 11 240 14.5 27.4 0.00 11.91 0.00 93 1010.8
20260506031041 11 225 12.9 24.1 0.00 11.91 0.00 93 1010.8
20260506030913 11 216 14.5 24.1 0.00 11.91 0.00 93 1010.7
20260506030825 11 227 14.5 24.1 0.00 11.91 0.00 93 1010.7
20260506030736 11 211 11.3 20.9 0.00 11.91 0.00 93 1010.6
20260506030628 11 191 11.3 20.9 0.00 11.91 0.00 93 1010.6
20260506030520 11 179 11.3 20.9 0.00 11.91 0.00 93 1010.6
20260506030412 11 175 11.3 22.5 0.00 11.91 0.00 93 1010.6
20260506030329 11 179 8.0 22.5 0.00 11.91 0.00 93 1010.6
20260506030241 11 222 12.9 22.5 0.00 11.91 0.00 93 1010.7
20260506030112 11 190 14.5 22.5 0.00 11.91 0.00 93 1010.6
20260506030025 11 207 12.9 22.5 0.00 11.91 0.00 93 1010.6
20260506025915 11 182 12.9 22.5 0.00 11.99 0.00 93 1010.6
20260506025831 11 179 12.9 22.5 0.00 11.99 0.00 93 1010.6
20260506025723 11 180 12.9 22.5 0.00 11.99 0.00 93 1010.6
20260506025615 11 211 14.5 22.5 0.00 11.99 0.00 93 1010.6
20260506025527 11 181 11.3 22.5 0.00 11.99 0.00 93 1010.6
20260506025419 12 213 8.0 17.7 0.00 11.99 0.00 93 1010.5
20260506025312 12 180 6.4 14.5 0.00 11.99 0.00 93 1010.5
20260506025228 12 180 8.0 14.5 0.00 11.99 0.00 93 1010.5
20260506025120 11 180 8.0 14.5 0.00 11.99 0.00 93 1010.4
20260506025012 11 164 8.0 14.5 0.00 11.99 0.00 93 1010.5
20260506024922 11 180 8.0 14.5 0.00 11.99 0.00 93 1010.5
20260506024815 11 181 9.7 14.5 0.00 11.99 0.00 93 1010.5
20260506024712 11 198 9.7 14.5 0.00 11.99 0.00 93 1010.6
20260506024625 11 175 9.7 16.1 0.00 11.99 0.00 93 1010.6
20260506024518 11 183 8.0 11.3 0.00 11.99 0.00 93 1010.5
20260506024430 11 179 6.4 11.3 0.00 11.99 0.00 93 1010.5
20260506024323 11 172 6.4 9.7 0.00 11.99 0.00 93 1010.6
20260506024219 11 172 6.4 11.3 0.00 11.99 0.00 93 1010.6
20260506024130 11 163 4.8 8.0 0.00 11.99 0.00 93 1010.6
20260506024023 11 161 3.2 8.0 0.00 11.99 0.00 93 1010.6
20260506023935 11 161 3.2 8.0 0.00 11.99 0.00 93 1010.6
20260506023846 11 161 3.2 8.0 0.00 11.99 0.00 93 1010.6
20260506023716 11 161 1.6 6.4 0.00 11.99 0.00 93 1010.7
20260506023612 11 115 1.6 4.8 0.00 11.99 0.00 93 1010.6
20260506023524 11 115 1.6 4.8 0.00 11.99 0.00 93 1010.6
20260506023415 11 115 1.6 4.8 0.00 11.99 0.00 93 1010.6
20260506023328 11 115 0.0 4.8 0.00 11.99 0.00 93 1010.6
20260506023220 11 115 0.0 4.8 0.00 11.99 0.00 93 1010.6
20260506023131 11 115 0.0 4.8 0.00 11.99 0.00 93 1010.5